Sigfox identifier Datetime Temperature Humidity SNR
003BEC6A 2019-03-23 09:01:06 22.2 21 23.5
003BEC6A 2019-03-23 08:29:45 22.2 21 23.5
003BEC6A 2019-03-23 07:58:26 22.2 21 23.5
003BEC6A 2019-03-23 07:27:08 22.2 22 23.6
003BEC6A 2019-03-23 06:55:49 22.2 22 23.6
003BEC6A 2019-03-23 06:24:30 22.2 22 23.6
003BEC6A 2019-03-23 05:53:11 22.3 22 23.5
003BEC6A 2019-03-23 05:21:51 22.2 22 23.4
003BEC6A 2019-03-23 04:50:33 22.3 22 23.4
003BEC6A 2019-03-23 04:19:15 22.2 21 23.5
003BEC6A 2019-03-23 03:47:58 22.2 21 24.1
003BEC6A 2019-03-23 03:16:39 22.2 21 24.1
003BEC6A 2019-03-23 02:45:20 22.2 21 23.9
003BEC6A 2019-03-23 02:14:01 22.2 20 23.9
003BEC6A 2019-03-23 01:42:42 22.3 20 23.9
003BEC6A 2019-03-23 01:11:22 22.2 19 23.9
003BEC6A 2019-03-23 00:40:03 22.5 19 24
003BEC6A 2019-03-23 00:38:51 22.2 19 23.9
003BEC6A 2019-03-23 00:07:31 22.2 19 23.9
003BEC6A 2019-03-22 23:36:11 22.2 19 23.9
003BEC6A 2019-03-22 23:04:53 22.3 19 23.9
003BEC6A 2019-03-22 22:33:34 22.3 18 23.9
003BEC6A 2019-03-22 22:02:15 22.3 18 23.9
003BEC6A 2019-03-22 21:30:57 22.3 18 23.9
003BEC6A 2019-03-22 20:59:38 22.3 18 23.8
003BEC6A 2019-03-22 20:28:16 22.3 19 23.8
003BEC6A 2019-03-22 19:56:55 22.3 19 23.7
003BEC6A 2019-03-22 19:25:36 22.3 19 23.7
003BEC6A 2019-03-22 18:54:18 22.3 19 23.7
003BEC6A 2019-03-22 18:22:59 22.3 19 23.6
003BEC6A 2019-03-22 17:51:42 22.3 19 23.6
003BEC6A 2019-03-22 17:20:24 22.2 19 23.7
003BEC6A 2019-03-22 16:49:05 22.3 20 23.8
003BEC6A 2019-03-22 16:17:46 22.3 20 23.8
003BEC6A 2019-03-22 15:46:28 22.3 20 23.8
003BEC6A 2019-03-22 15:15:08 22.3 20 23.2
003BEC6A 2019-03-22 14:43:49 22.3 19 23.1
003BEC6A 2019-03-22 14:12:31 22.3 19 23
003BEC6A 2019-03-22 13:41:13 22.3 20 23.1
003BEC6A 2019-03-22 13:09:54 22.2 20 22.9
003BEC6A 2019-03-22 12:38:35 22.2 20 22.9
003BEC6A 2019-03-22 12:07:16 22.2 21 22.8
003BEC6A 2019-03-22 11:35:58 22.2 21 22.7
003BEC6A 2019-03-22 11:04:40 22.2 22 22.8
003BEC6A 2019-03-22 10:33:20 22.2 22 22.7
003BEC6A 2019-03-22 10:02:00 22.2 22 22.6
003BEC6A 2019-03-22 09:30:39 22.2 22 22.5
003BEC6A 2019-03-22 08:59:18 22.1 22 22.6
003BEC6A 2019-03-22 08:27:57 22.2 22 22.5
003BEC6A 2019-03-22 07:56:35 22.1 22 22.6
003BEC6A 2019-03-22 07:25:15 22.2 22 22.7
003BEC6A 2019-03-22 06:53:52 22.1 22 22.7
003BEC6A 2019-03-22 06:22:32 22.1 22 22.7
003BEC6A 2019-03-22 05:51:10 22.1 22 22.7
003BEC6A 2019-03-22 05:19:50 22.1 22 22.8
003BEC6A 2019-03-22 04:48:30 22.1 22 22.9
003BEC6A 2019-03-22 04:17:09 22.1 21 22.8
003BEC6A 2019-03-22 03:45:49 22.1 22 22.8
003BEC6A 2019-03-22 03:14:29 22.1 22 22.7
003BEC6A 2019-03-22 02:43:08 22.1 22 22.4
003BEC6A 2019-03-22 02:11:47 22.1 23 22.5
003BEC6A 2019-03-22 01:40:28 22.1 24 22.5
003BEC6A 2019-03-22 01:09:08 22.1 26 22.4
003BEC6A 2019-03-22 00:37:48 22.1 28 22.4
003BEC6A 2019-03-22 00:06:27 22.1 27 22.7
003BEC6A 2019-03-21 23:35:08 22.1 26 22.6
003BEC6A 2019-03-21 23:03:47 22.1 27 22.7
003BEC6A 2019-03-21 22:31:55 22.1 28 22.7
003BEC6A 2019-03-21 22:00:35 22.1 28 22.7
003BEC6A 2019-03-21 21:29:14 22 28 22.8
003BEC6A 2019-03-21 20:57:54 22 27 22.8
003BEC6A 2019-03-21 20:26:33 22.1 27 22.9
003BEC6A 2019-03-21 19:55:13 22 27 23
003BEC6A 2019-03-21 19:23:52 22 27 23.1
003BEC6A 2019-03-21 18:52:31 22.1 27 23
003BEC6A 2019-03-21 18:21:10 22.1 27 23.1
003BEC6A 2019-03-21 17:49:49 22.1 27 23.2
003BEC6A 2019-03-21 17:18:27 22.1 27 23.2
003BEC6A 2019-03-21 16:47:07 22.1 27 23.2
003BEC6A 2019-03-21 16:15:47 22.1 28 23.2
003BEC6A 2019-03-21 15:44:26 22.1 28 23.3
003BEC6A 2019-03-21 15:13:06 22.2 28 23.3
003BEC6A 2019-03-21 14:41:46 22.2 28 23.4
003BEC6A 2019-03-21 14:10:27 22.2 27 23.4
003BEC6A 2019-03-21 13:39:06 22.2 27 23.5
003BEC6A 2019-03-21 13:07:45 22.2 26 23.6
003BEC6A 2019-03-21 12:36:24 22.2 26 23.7
003BEC6A 2019-03-21 12:05:02 22.2 26 23.8
003BEC6A 2019-03-21 11:33:41 22.2 26 23.6
003BEC6A 2019-03-21 11:02:19 22.2 26 23.7
003BEC6A 2019-03-21 10:30:56 22.2 26 23.7
003BEC6A 2019-03-21 09:59:35 22.1 26 23.8
003BEC6A 2019-03-21 09:28:13 22.1 26 23.8
003BEC6A 2019-03-21 08:56:53 22.1 26 23.9
003BEC6A 2019-03-21 08:25:33 22.1 25 23.9
003BEC6A 2019-03-21 07:54:12 22.1 25 23.9
003BEC6A 2019-03-21 07:22:52 22.1 25 23.8
003BEC6A 2019-03-21 06:51:32 22.1 24 23.8
003BEC6A 2019-03-21 06:20:11 22.1 23 23.7
003BEC6A 2019-03-21 05:48:52 22 23 23.6
003BEC6A 2019-03-21 05:17:32 22 23 23.5
003BEC6A 2019-03-21 04:46:10 22 23 23.5
003BEC6A 2019-03-21 04:14:50 22 23 23.6
003BEC6A 2019-03-21 03:43:30 22 24 23.5
003BEC6A 2019-03-21 03:12:10 22 24 23.4
003BEC6A 2019-03-21 02:40:50 22 24 23.2
003BEC6A 2019-03-21 02:09:29 22 24 23.2
003BEC6A 2019-03-21 01:38:09 22 24 23.2
003BEC6A 2019-03-21 01:06:48 22 24 23.2
003BEC6A 2019-03-21 00:35:27 22 24 23
003BEC6A 2019-03-21 00:04:08 22 25 23
003BEC6A 2019-03-20 23:32:46 22 25 23
003BEC6A 2019-03-20 23:01:27 21.9 25 23.1
003BEC6A 2019-03-20 22:30:06 22 25 23.2
003BEC6A 2019-03-20 21:58:45 22 25 23.2
003BEC6A 2019-03-20 21:27:24 21.9 25 23.1
003BEC6A 2019-03-20 20:56:05 22 25 23
003BEC6A 2019-03-20 20:24:11 22 25 22.9
003BEC6A 2019-03-20 19:52:50 21.9 25 22.9
003BEC6A 2019-03-20 19:21:30 22 25 22.9
003BEC6A 2019-03-20 18:50:11 22 25 22.9
003BEC6A 2019-03-20 18:18:50 22 25 23
003BEC6A 2019-03-20 17:47:30 22 25 23
003BEC6A 2019-03-20 17:16:11 22 25 23
003BEC6A 2019-03-20 16:44:50 22 25 23.2
003BEC6A 2019-03-20 16:13:30 22.1 25 23.1
003BEC6A 2019-03-20 15:42:11 22 25 22.9
003BEC6A 2019-03-20 15:10:51 22.1 25 23
003BEC6A 2019-03-20 14:39:31 22.1 25 23
003BEC6A 2019-03-20 14:08:09 22.1 26 23.1
003BEC6A 2019-03-20 13:36:49 22.1 27 23
003BEC6A 2019-03-20 13:05:28 22.1 27 23
003BEC6A 2019-03-20 12:34:06 22.1 27 22.9
003BEC6A 2019-03-20 12:02:46 22.1 26 23
003BEC6A 2019-03-20 11:31:26 22.1 25 23
003BEC6A 2019-03-20 11:00:06 22.1 25 22.9
003BEC6A 2019-03-20 10:28:45 22.1 25 22.8
003BEC6A 2019-03-20 09:57:24 22.1 25 22.9
003BEC6A 2019-03-20 09:26:04 22.1 25 22.9
003BEC6A 2019-03-20 08:54:45 22.1 26 22.9
003BEC6A 2019-03-20 08:23:25 22.1 26 22.9
003BEC6A 2019-03-20 07:52:05 22.1 27 22.9
003BEC6A 2019-03-20 07:20:44 22.1 27 22.9
003BEC6A 2019-03-20 06:49:23 22.1 28 22.9
003BEC6A 2019-03-20 06:18:02 22.1 28 22.9
003BEC6A 2019-03-20 05:46:41 22.1 27 23
003BEC6A 2019-03-20 05:15:19 22.1 27 22.9
003BEC6A 2019-03-20 04:43:58 22.1 27 22.9
003BEC6A 2019-03-20 04:12:36 22.1 26 23.1
003BEC6A 2019-03-20 03:41:17 22.1 24 23.1
003BEC6A 2019-03-20 03:09:58 22.1 24 23.1
003BEC6A 2019-03-20 02:38:40 22.1 24 23.1
003BEC6A 2019-03-20 02:07:23 22.1 24 23.1
003BEC6A 2019-03-20 01:36:06 22.1 25 23.2
003BEC6A 2019-03-20 01:04:47 22.1 25 23.5
003BEC6A 2019-03-20 00:33:29 22.1 25 23.4
003BEC6A 2019-03-20 00:02:11 22.1 25 23.4
003BEC6A 2019-03-19 23:30:53 22.1 25 23.4
003BEC6A 2019-03-19 22:59:35 22.1 26 23.4
003BEC6A 2019-03-19 22:28:18 22.1 26 23.4
003BEC6A 2019-03-19 21:57:01 22.1 26 23.5
003BEC6A 2019-03-19 21:25:42 22.1 26 23.5
003BEC6A 2019-03-19 20:54:24 22.1 27 23.6
003BEC6A 2019-03-19 20:23:06 22.1 27 23.6
003BEC6A 2019-03-19 19:51:49 22.1 27 23.5
003BEC6A 2019-03-19 19:20:30 22.1 27 23.6
003BEC6A 2019-03-19 18:49:13 22.1 27 23.6
003BEC6A 2019-03-19 18:17:23 22.1 27 23.8
003BEC6A 2019-03-19 17:46:06 22.1 27 23.7
003BEC6A 2019-03-19 17:14:47 22.1 27 23.6
003BEC6A 2019-03-19 16:43:29 22.1 27 23.6
003BEC6A 2019-03-19 16:12:12 22.2 27 23.6
003BEC6A 2019-03-19 15:40:56 22.1 27 23.4
003BEC6A 2019-03-19 15:09:40 22.1 27 23.4
003BEC6A 2019-03-19 14:38:21 22.1 27 23.4
003BEC6A 2019-03-19 14:07:03 22.1 28 23.5
003BEC6A 2019-03-19 13:35:46 22.1 27 23.5
003BEC6A 2019-03-19 13:04:28 22.1 27 23.3
003BEC6A 2019-03-19 12:33:10 22.1 27 23.2
003BEC6A 2019-03-19 12:01:52 22.1 27 23.2
003BEC6A 2019-03-19 11:30:34 22.2 28 23.3
003BEC6A 2019-03-19 10:59:16 22.1 29 23.4
003BEC6A 2019-03-19 10:27:58 22.2 30 23.4
003BEC6A 2019-03-19 09:56:41 22.2 30 23.3
003BEC6A 2019-03-19 09:25:23 22.2 30 23.3
003BEC6A 2019-03-19 08:54:06 22.2 30 23.3
003BEC6A 2019-03-19 08:22:47 22.2 30 23
003BEC6A 2019-03-19 07:51:30 22.2 30 23
003BEC6A 2019-03-19 07:20:13 22.2 30 23
003BEC6A 2019-03-19 06:48:54 22.2 30 22.8
003BEC6A 2019-03-19 06:17:36 22.2 29 22.8
003BEC6A 2019-03-19 05:46:18 22.1 28 22.7
003BEC6A 2019-03-19 05:14:59 22.1 28 22.6
003BEC6A 2019-03-19 04:43:41 22.1 27 22.7
003BEC6A 2019-03-19 04:12:20 22.1 27 22.7
003BEC6A 2019-03-19 03:41:00 22.1 28 22.7
003BEC6A 2019-03-19 03:09:40 22.1 27 22.7
003BEC6A 2019-03-19 02:38:23 22.1 27 22.7
003BEC6A 2019-03-19 02:07:07 22.1 26 22.6
003BEC6A 2019-03-19 01:35:46 22.1 26 22.7
003BEC6A 2019-03-19 01:04:26 22.1 25 22.7
003BEC6A 2019-03-19 00:33:05 22.1 25 22.8
003BEC6A 2019-03-19 00:01:45 22.1 25 22.8
003BEC6A 2019-03-18 23:30:24 22.1 25 22.8
003BEC6A 2019-03-18 22:59:05 22.1 25 22.8
003BEC6A 2019-03-18 22:27:47 22.1 25 22.7
003BEC6A 2019-03-18 21:56:27 22.1 25 22.8
003BEC6A 2019-03-18 21:25:06 22.1 25 22.9
003BEC6A 2019-03-18 20:53:48 22.1 25 22.9
003BEC6A 2019-03-18 20:22:30 22.1 25 22.9
003BEC6A 2019-03-18 19:51:13 22.1 25 22.8
003BEC6A 2019-03-18 19:19:54 22.1 25 22.8
003BEC6A 2019-03-18 18:48:36 22.1 25 22.9
003BEC6A 2019-03-18 18:17:18 22.1 25 22.8
003BEC6A 2019-03-18 17:45:57 22.1 25 22.9
003BEC6A 2019-03-18 17:14:36 22.1 25 22.9
003BEC6A 2019-03-18 16:43:16 22.1 25 22.9
003BEC6A 2019-03-18 16:11:24 22.1 25 23
003BEC6A 2019-03-18 15:40:06 22.1 25 23
003BEC6A 2019-03-18 15:08:48 22.1 25 23
003BEC6A 2019-03-18 14:37:29 22.1 26 22.9
003BEC6A 2019-03-18 14:06:11 22.1 26 23
003BEC6A 2019-03-18 13:34:52 22.1 26 23
003BEC6A 2019-03-18 13:03:32 22.2 26 22.9
003BEC6A 2019-03-18 12:32:11 22.1 26 22.8
003BEC6A 2019-03-18 12:00:52 22.2 27 22.9
003BEC6A 2019-03-18 11:29:30 22.2 27 23
003BEC6A 2019-03-18 10:58:10 22.2 28 23
003BEC6A 2019-03-18 10:26:50 22.2 29 22.9
003BEC6A 2019-03-18 09:55:31 22.3 28 22.9
003BEC6A 2019-03-18 09:24:12 22.2 28 22.8
003BEC6A 2019-03-18 08:52:53 22.2 29 22.7
003BEC6A 2019-03-18 08:21:34 22.2 29 22.6
003BEC6A 2019-03-18 07:50:15 22.2 29 22.6
003BEC6A 2019-03-18 07:18:57 22.2 29 23.3
003BEC6A 2019-03-18 06:47:39 22.2 29 23.4
003BEC6A 2019-03-18 06:16:19 22.2 29 23.3
003BEC6A 2019-03-18 05:45:00 22.2 29 23.5
003BEC6A 2019-03-18 05:13:40 22.3 29 23.4
003BEC6A 2019-03-18 04:42:20 22.3 29 23.4
003BEC6A 2019-03-18 04:11:01 22.3 28 23.5
003BEC6A 2019-03-18 03:39:42 22.3 27 23.5
003BEC6A 2019-03-18 03:08:22 22.3 27 23.4
003BEC6A 2019-03-18 02:37:02 22.4 27 23.4
003BEC6A 2019-03-18 02:05:43 22.5 28 23.4
003BEC6A 2019-03-18 01:34:25 22.6 28 23.7
003BEC6A 2019-03-18 01:03:07 22.8 29 23.7
003BEC6A 2019-03-18 00:31:51 22.7 29 23.6
003BEC6A 2019-03-18 00:00:32 22.6 29 23.6
003BEC6A 2019-03-17 23:29:15 22.3 29 23.6
003BEC6A 2019-03-17 22:57:57 22.1 26 23.6
003BEC6A 2019-03-17 22:26:39 22.1 26 23.5
003BEC6A 2019-03-17 21:55:19 22.1 25 23.5
003BEC6A 2019-03-17 21:24:01 22.1 25 23.6
003BEC6A 2019-03-17 20:52:41 22.1 25 23.6
003BEC6A 2019-03-17 20:21:22 22.1 25 23.7
003BEC6A 2019-03-17 19:50:03 22.1 25 23.7
003BEC6A 2019-03-17 19:18:44 22.1 25 23.7
003BEC6A 2019-03-17 18:47:26 22.1 25 23.7
003BEC6A 2019-03-17 18:16:09 22.1 25 23.1
003BEC6A 2019-03-17 17:44:51 22.1 25 23
003BEC6A 2019-03-17 17:13:33 22.1 25 23.1
003BEC6A 2019-03-17 16:42:15 22.1 26 23.1
003BEC6A 2019-03-17 16:10:57 22.1 26 23
003BEC6A 2019-03-17 15:39:38 22.1 26 23
003BEC6A 2019-03-17 15:08:20 22.2 26 23
003BEC6A 2019-03-17 14:37:02 22.2 26 23
003BEC6A 2019-03-17 14:05:10 22.2 27 23.1
003BEC6A 2019-03-17 13:33:50 22.2 27 23.1
003BEC6A 2019-03-17 13:02:33 22.2 27 22.9
003BEC6A 2019-03-17 12:31:12 22.3 28 23.1
003BEC6A 2019-03-17 11:59:52 22.2 28 23.2
003BEC6A 2019-03-17 11:28:33 22.2 28 23.3
003BEC6A 2019-03-17 10:57:11 22.3 28 23.3
003BEC6A 2019-03-17 10:25:49 22.3 28 23.2
003BEC6A 2019-03-17 09:54:28 22.3 28 23.3
003BEC6A 2019-03-17 09:23:08 22.3 28 23.3
003BEC6A 2019-03-17 08:51:47 22.3 28 23.3
003BEC6A 2019-03-17 08:20:27 22.3 28 23.3
003BEC6A 2019-03-17 07:49:06 22.3 28 23.3
003BEC6A 2019-03-17 07:17:45 22.3 28 23.2
003BEC6A 2019-03-17 06:46:25 22.3 28 23.2
003BEC6A 2019-03-17 06:15:06 22.2 28 23.3
003BEC6A 2019-03-17 05:43:47 22.2 28 23.3
003BEC6A 2019-03-17 05:12:27 22.2 27 23.4
003BEC6A 2019-03-17 04:41:07 22.2 26 23.3
003BEC6A 2019-03-17 04:09:47 22.2 26 23.3
003BEC6A 2019-03-17 03:38:28 22.2 27 23.4
003BEC6A 2019-03-17 03:07:10 22.2 26 23.5
003BEC6A 2019-03-17 02:35:50 22.2 26 23.4
003BEC6A 2019-03-17 02:04:32 22.2 26 23.4
003BEC6A 2019-03-17 01:33:12 22.2 27 23.4
003BEC6A 2019-03-17 01:01:53 22.2 25 23.3
003BEC6A 2019-03-17 00:30:34 22.2 25 23.3
003BEC6A 2019-03-16 23:59:16 22.1 25 23.3
003BEC6A 2019-03-16 23:27:57 22.2 25 23.3
003BEC6A 2019-03-16 22:56:40 22.1 25 23.2
003BEC6A 2019-03-16 22:25:22 22.2 25 23.1
003BEC6A 2019-03-16 21:54:03 22.2 25 23.2
003BEC6A 2019-03-16 21:22:45 22.2 25 23.4
003BEC6A 2019-03-16 20:51:26 22.2 25 23.2
003BEC6A 2019-03-16 20:20:07 22.2 25 23.3
003BEC6A 2019-03-16 19:48:49 22.2 25 23.3
003BEC6A 2019-03-16 19:17:31 22.2 25 23.3
003BEC6A 2019-03-16 18:46:12 22.2 26 23.3
003BEC6A 2019-03-16 18:14:52 22.2 26 23.3
003BEC6A 2019-03-16 17:43:32 22.2 26 23.3
003BEC6A 2019-03-16 17:12:15 22.3 27 23.2
003BEC6A 2019-03-16 16:40:55 22.3 26 23.3
003BEC6A 2019-03-16 16:09:37 22.3 26 23.2
003BEC6A 2019-03-16 15:38:18 22.3 27 23.2
003BEC6A 2019-03-16 15:06:59 22.3 27 23.3
003BEC6A 2019-03-16 14:35:41 22.3 28 23.2
003BEC6A 2019-03-16 14:04:24 22.3 27 23.2
003BEC6A 2019-03-16 13:33:06 22.3 26 23.2
003BEC6A 2019-03-16 13:01:47 22.3 26 23.2
003BEC6A 2019-03-16 12:30:28 22.3 27 23.3
003BEC6A 2019-03-16 11:58:37 22.3 27 23.3
003BEC6A 2019-03-16 11:27:18 22.3 27 23.2
003BEC6A 2019-03-16 10:56:01 22.3 27 23.1
003BEC6A 2019-03-16 10:24:43 22.3 27 23.2
003BEC6A 2019-03-16 09:53:25 22.3 27 23.2
003BEC6A 2019-03-16 09:22:07 22.3 27 23.3
003BEC6A 2019-03-16 08:50:49 22.3 27 23.1
003BEC6A 2019-03-16 08:19:30 22.3 27 23.2
003BEC6A 2019-03-16 07:48:12 22.3 27 23.2
003BEC6A 2019-03-16 07:16:54 22.3 27 23.3
003BEC6A 2019-03-16 06:45:36 22.3 27 23.3
003BEC6A 2019-03-16 06:14:18 22.3 27 23.2
003BEC6A 2019-03-16 05:42:59 22.3 27 23.2
003BEC6A 2019-03-16 05:11:42 22.3 26 23.2
003BEC6A 2019-03-16 04:40:26 22.2 26 23.3
003BEC6A 2019-03-16 04:09:08 22.2 26 23.2
003BEC6A 2019-03-16 03:37:48 22.3 25 23.3
003BEC6A 2019-03-16 03:06:31 22.3 25 23.3
003BEC6A 2019-03-16 02:35:15 22.3 25 23.3
003BEC6A 2019-03-16 02:03:58 22.2 25 23.4
003BEC6A 2019-03-16 01:32:40 22.3 25 23.4
003BEC6A 2019-03-16 01:01:21 22.3 25 23.5
003BEC6A 2019-03-16 00:30:02 22.2 25 23.6
003BEC6A 2019-03-15 23:58:42 22.2 26 23.5
003BEC6A 2019-03-15 23:27:22 22.2 26 23.6
003BEC6A 2019-03-15 22:56:01 22.2 26 23.5
003BEC6A 2019-03-15 22:24:40 22.2 25 23.5
003BEC6A 2019-03-15 21:53:22 22.2 26 23.6
003BEC6A 2019-03-15 21:22:02 22.2 26 23.6
003BEC6A 2019-03-15 20:50:41 22.2 26 23.5
003BEC6A 2019-03-15 20:19:21 22.2 26 23.4
003BEC6A 2019-03-15 19:48:00 22.2 26 23.4
003BEC6A 2019-03-15 19:16:41 22.2 26 23.4
003BEC6A 2019-03-15 18:45:20 22.2 26 23.2
003BEC6A 2019-03-15 18:13:59 22.2 26 23.2
003BEC6A 2019-03-15 17:42:40 22.3 26 23.2
003BEC6A 2019-03-15 17:11:20 22.3 26 23.3
003BEC6A 2019-03-15 16:40:00 22.3 27 23.4
003BEC6A 2019-03-15 16:08:42 22.4 27 23.4
003BEC6A 2019-03-15 15:37:23 22.5 27 23.4
003BEC6A 2019-03-15 15:06:03 22.4 25 23.4
003BEC6A 2019-03-15 14:34:45 22.3 25 23.3
003BEC6A 2019-03-15 14:03:26 22.3 26 23.3
003BEC6A 2019-03-15 13:32:07 22.3 28 23.1
003BEC6A 2019-03-15 13:00:48 22.3 29 23.2
003BEC6A 2019-03-15 12:29:30 22.3 29 23.2
003BEC6A 2019-03-15 11:58:11 22.3 28 23.1
003BEC6A 2019-03-15 11:26:51 22.3 27 23
003BEC6A 2019-03-15 10:55:31 22.3 27 23.1
003BEC6A 2019-03-15 10:24:12 22.3 27 23.1
003BEC6A 2019-03-15 09:52:19 22.4 27 23.1
003BEC6A 2019-03-15 09:21:00 22.3 27 23.1
003BEC6A 2019-03-15 08:49:41 22.4 27 23.1
003BEC6A 2019-03-15 08:18:24 22.4 27 23.1
003BEC6A 2019-03-15 07:47:04 22.4 27 23.2
003BEC6A 2019-03-15 07:15:45 22.4 27 23.2
003BEC6A 2019-03-15 06:44:25 22.3 27 23.3
003BEC6A 2019-03-15 06:13:05 22.4 28 23.4
003BEC6A 2019-03-15 05:41:45 22.3 27 23.4
003BEC6A 2019-03-15 05:10:26 22.3 27 23.5
003BEC6A 2019-03-15 04:39:06 22.3 26 23.4
003BEC6A 2019-03-15 04:07:48 22.3 26 23.3
003BEC6A 2019-03-15 03:36:29 22.3 25 23.5
003BEC6A 2019-03-15 03:05:09 22.3 24 23.6
003BEC6A 2019-03-15 02:33:50 22.3 24 23.5
003BEC6A 2019-03-15 02:02:31 22.3 24 23.7
003BEC6A 2019-03-15 01:31:12 22.3 24 23.7
003BEC6A 2019-03-15 00:59:52 22.3 23 23.6
003BEC6A 2019-03-15 00:28:34 22.3 23 23.5
003BEC6A 2019-03-14 23:57:16 22.3 23 23.5
003BEC6A 2019-03-14 23:25:57 22.3 24 23.5
003BEC6A 2019-03-14 22:54:38 22.3 24 23.7
003BEC6A 2019-03-14 22:23:18 22.3 24 23.6
003BEC6A 2019-03-14 21:51:58 22.4 25 23.6
003BEC6A 2019-03-14 21:20:37 22.4 25 23.6
003BEC6A 2019-03-14 20:49:18 22.4 26 23.5
003BEC6A 2019-03-14 20:17:59 22.2 23 23.6
003BEC6A 2019-03-14 19:46:40 22.2 23 23.6
003BEC6A 2019-03-14 19:15:21 22.2 24 23.6
003BEC6A 2019-03-14 18:44:01 22.2 23 23.6
003BEC6A 2019-03-14 18:12:42 22.2 23 23.6
003BEC6A 2019-03-14 17:41:22 22.2 23 23.6
003BEC6A 2019-03-14 17:10:02 22.3 23 23.6
003BEC6A 2019-03-14 16:38:43 22.2 23 23.5
003BEC6A 2019-03-14 16:07:23 22.3 23 23.3
003BEC6A 2019-03-14 15:36:04 22.2 23 23.4
003BEC6A 2019-03-14 15:04:46 22.3 23 23.5
003BEC6A 2019-03-14 14:33:26 22.3 23 23.3
003BEC6A 2019-03-14 14:02:07 22.3 23 23.2
003BEC6A 2019-03-14 13:30:46 22.3 23 23.2
003BEC6A 2019-03-14 12:59:25 22.3 23 23.1
003BEC6A 2019-03-14 12:28:05 22.3 23 23.1
003BEC6A 2019-03-14 11:56:45 22.3 23 23.2
003BEC6A 2019-03-14 11:25:24 22.3 24 23.3
003BEC6A 2019-03-14 10:54:04 22.3 24 23.3
003BEC6A 2019-03-14 10:22:46 22.4 25 23.3
003BEC6A 2019-03-14 09:51:26 22.4 25 23.2
003BEC6A 2019-03-14 09:20:08 22.4 24 23.2
003BEC6A 2019-03-14 08:48:49 22.4 24 23.2
003BEC6A 2019-03-14 05:08:57 22.4 24 22.9
003BEC6A 2019-03-14 04:37:36 22.3 24 22.9
003BEC6A 2019-03-14 04:06:16 22.3 23 23
003BEC6A 2019-03-14 03:34:56 22.3 22 23.3
003BEC6A 2019-03-14 03:03:35 22.3 21 23.2
003BEC6A 2019-03-14 02:32:13 22.3 20 23.1
003BEC6A 2019-03-14 02:00:53 22.3 20 23.2
003BEC6A 2019-03-14 01:29:31 22.3 20 23.2
003BEC6A 2019-03-14 00:58:11 22.2 20 23.1
003BEC6A 2019-03-14 00:26:51 22.2 19 23.2
003BEC6A 2019-03-13 23:55:31 22.2 19 23.2
003BEC6A 2019-03-13 23:24:13 22.2 18 23.1
003BEC6A 2019-03-13 22:52:54 22.2 18 23.1
003BEC6A 2019-03-13 22:21:35 22.2 17 23
003BEC6A 2019-03-13 21:50:17 22.2 17 22.9
003BEC6A 2019-03-13 21:18:58 22.2 17 22.9
003BEC6A 2019-03-13 20:47:40 22.2 17 23.1
003BEC6A 2019-03-13 20:16:20 22.2 17 23.1
003BEC6A 2019-03-13 19:45:01 22.2 16 23.1
003BEC6A 2019-03-13 19:13:40 22.2 16 23.2
003BEC6A 2019-03-13 18:42:20 22.2 16 23.1
003BEC6A 2019-03-13 18:11:01 22.2 16 23.1
003BEC6A 2019-03-13 17:39:37 22.1 16 23.2
003BEC6A 2019-03-13 17:08:16 22.1 16 23.3
003BEC6A 2019-03-13 16:36:54 22.2 16 23.4
003BEC6A 2019-03-13 16:05:33 22.2 16 23.4
003BEC6A 2019-03-13 15:34:11 22.2 16 23.3
003BEC6A 2019-03-13 15:02:49 22.1 16 23.4
003BEC6A 2019-03-13 14:31:29 22.1 16 23.1
003BEC6A 2019-03-13 14:00:09 22.2 16 23.2
003BEC6A 2019-03-13 13:28:49 22.1 16 23.1
003BEC6A 2019-03-13 12:57:28 22.1 16 23.2
003BEC6A 2019-03-13 12:26:07 22.2 16 23.3
003BEC6A 2019-03-13 11:54:44 22.2 17 23.4
003BEC6A 2019-03-13 11:23:23 22.2 17 23.2
003BEC6A 2019-03-13 10:51:59 22.2 17 23.3
003BEC6A 2019-03-13 10:20:36 22.2 18 23.3
003BEC6A 2019-03-13 09:49:15 22.3 18 23.4
003BEC6A 2019-03-13 09:17:52 22.2 17 23.4
003BEC6A 2019-03-13 08:46:30 22.2 17 23.5
003BEC6A 2019-03-13 08:15:08 22.2 16 23.6
003BEC6A 2019-03-13 07:43:46 22.2 16 23.4
003BEC6A 2019-03-13 07:12:24 22.2 16 23.5
003BEC6A 2019-03-13 06:41:01 22.2 16 23.5
003BEC6A 2019-03-13 06:09:39 22.3 16 23.5
003BEC6A 2019-03-13 05:37:44 22.2 16 23.4
003BEC6A 2019-03-13 05:06:21 22.2 16 23.4
003BEC6A 2019-03-13 04:34:58 22.3 16 23.3
003BEC6A 2019-03-13 04:03:36 22.3 17 23.2
003BEC6A 2019-03-13 03:32:15 22.3 17 23.4
003BEC6A 2019-03-13 03:00:53 22.3 16 23.4
003BEC6A 2019-03-13 02:29:31 22.3 16 23.4
003BEC6A 2019-03-13 01:58:09 22.3 17 23.5
003BEC6A 2019-03-13 01:26:47 22.2 17 23.6
003BEC6A 2019-03-13 00:55:26 22.2 16 23.6
003BEC6A 2019-03-13 00:24:04 22.2 17 23.6
003BEC6A 2019-03-12 23:52:44 22.2 16 23.6
003BEC6A 2019-03-12 23:21:24 22.3 16 23.4
003BEC6A 2019-03-12 22:50:05 22.3 16 23.5
003BEC6A 2019-03-12 22:18:47 22.3 16 23.5
003BEC6A 2019-03-12 21:47:26 22.2 15 23.6
003BEC6A 2019-03-12 21:16:05 22.2 15 23.5
003BEC6A 2019-03-12 20:44:44 22.2 15 23.6
003BEC6A 2019-03-12 20:13:24 22.2 15 23.6
003BEC6A 2019-03-12 19:42:04 22.2 15 23.6
003BEC6A 2019-03-12 19:10:43 22.2 15 23.6
003BEC6A 2019-03-12 18:39:23 22.2 16 23.5
003BEC6A 2019-03-12 18:08:04 22.2 16 23.5
003BEC6A 2019-03-12 17:36:44 22.2 16 23.5
003BEC6A 2019-03-12 17:05:24 22.2 16 23.6
003BEC6A 2019-03-12 16:34:03 22.2 16 23.6
003BEC6A 2019-03-12 16:02:43 22.2 16 23.7
003BEC6A 2019-03-12 15:31:21 22.2 16 23.6
003BEC6A 2019-03-12 15:00:00 22.2 16 23.7
003BEC6A 2019-03-12 14:28:39 22.2 16 23.6
003BEC6A 2019-03-12 13:57:18 22.2 16 23.7
003BEC6A 2019-03-12 13:25:55 22.2 16 23.7
003BEC6A 2019-03-12 12:54:33 22.2 16 23.5
003BEC6A 2019-03-12 12:23:13 22.2 17 23.5
003BEC6A 2019-03-12 11:51:50 22.2 17 24.1
003BEC6A 2019-03-12 11:20:30 22.3 17 24.1
003BEC6A 2019-03-12 10:49:08 22.3 18 24.1
003BEC6A 2019-03-12 10:17:45 22.3 18 24.2
003BEC6A 2019-03-12 09:46:25 22.1 18 24.1
003BEC6A 2019-03-12 09:15:04 22.1 18 24.1
003BEC6A 2019-03-12 08:43:44 22.1 18 24.1
003BEC6A 2019-03-12 08:12:23 22.1 18 24.1
003BEC6A 2019-03-12 07:41:03 22.1 17 24
003BEC6A 2019-03-12 07:09:40 22.1 18 24
003BEC6A 2019-03-12 06:38:19 22.1 17 24
003BEC6A 2019-03-12 06:07:00 22.1 18 24.1
003BEC6A 2019-03-12 05:35:40 22.1 18 24.1
003BEC6A 2019-03-12 05:04:20 22.1 18 24.1
003BEC6A 2019-03-12 04:33:00 22.1 17 24.1
003BEC6A 2019-03-12 04:01:40 22.1 17 24.1
003BEC6A 2019-03-12 03:29:46 22.1 16 24
003BEC6A 2019-03-12 02:58:25 22.1 16 24.1
003BEC6A 2019-03-12 02:27:06 22.1 17 24.1
003BEC6A 2019-03-12 01:55:45 22.1 17 24.1
003BEC6A 2019-03-12 01:24:26 22.1 16 24
003BEC6A 2019-03-12 00:53:07 22.1 15 23.9
003BEC6A 2019-03-12 00:21:48 22.1 16 24
003BEC6A 2019-03-11 23:50:27 22.1 16 24
003BEC6A 2019-03-11 23:19:06 22.1 16 23.4
003BEC6A 2019-03-11 22:47:46 22 16 23.4
003BEC6A 2019-03-11 22:16:26 22.1 16 23.3
003BEC6A 2019-03-11 21:45:07 22.1 17 23.3
003BEC6A 2019-03-11 21:13:46 22.1 17 23.3
003BEC6A 2019-03-11 20:42:24 22.1 17 23.4
003BEC6A 2019-03-11 20:11:05 22.1 17 23.4
003BEC6A 2019-03-11 19:39:47 22 16 23.4
003BEC6A 2019-03-11 19:08:27 22.1 16 23.4
003BEC6A 2019-03-11 18:37:07 22.1 15 23.4
003BEC6A 2019-03-11 18:05:47 22.1 15 23.3
003BEC6A 2019-03-11 17:34:26 22.1 15 23.3
003BEC6A 2019-03-11 17:03:05 22 16 23.3
003BEC6A 2019-03-11 16:31:42 22.1 16 23.3
003BEC6A 2019-03-11 16:00:21 22.1 16 23.2
003BEC6A 2019-03-11 15:29:00 22.1 16 23.2
003BEC6A 2019-03-11 14:57:39 22.1 16 23.3
003BEC6A 2019-03-11 14:26:19 22.1 16 23.2
003BEC6A 2019-03-11 13:54:56 22.1 16 23.2
003BEC6A 2019-03-11 13:23:34 22.1 16 23.2
003BEC6A 2019-03-11 12:52:11 22.1 16 23.1
003BEC6A 2019-03-11 12:20:50 22.1 16 23.1
003BEC6A 2019-03-11 11:49:28 22.1 17 23.1
003BEC6A 2019-03-11 11:18:07 22.1 17 23.1
003BEC6A 2019-03-11 10:46:48 22.1 18 23
003BEC6A 2019-03-11 10:15:28 22.1 18 23
003BEC6A 2019-03-11 09:44:09 22.2 19 23
003BEC6A 2019-03-11 09:12:48 22.2 20 23
003BEC6A 2019-03-11 08:41:28 22.2 20 23.1
003BEC6A 2019-03-11 08:10:09 22.2 20 23.2
003BEC6A 2019-03-11 07:38:50 22.1 20 23.3
003BEC6A 2019-03-11 07:07:29 22.1 20 23.2
003BEC6A 2019-03-11 06:36:10 22.1 20 23.2
003BEC6A 2019-03-11 06:04:50 22.1 19 23.2
003BEC6A 2019-03-11 05:33:29 22.1 19 23.3
003BEC6A 2019-03-11 05:02:09 22.1 18 23.2
003BEC6A 2019-03-11 04:30:49 22.1 17 23.2
003BEC6A 2019-03-11 03:59:28 22.1 16 23.2
003BEC6A 2019-03-11 03:28:08 22.1 16 23.2
003BEC6A 2019-03-11 02:56:47 22.1 16 23.2
003BEC6A 2019-03-11 02:25:27 22.2 16 23.2
003BEC6A 2019-03-11 01:54:06 22.2 16 23
003BEC6A 2019-03-11 01:22:12 22.2 17 23
003BEC6A 2019-03-11 00:50:51 22.1 16 23
003BEC6A 2019-03-11 00:19:30 22.2 17 23.1
003BEC6A 2019-03-10 23:48:08 22.2 18 23.1
003BEC6A 2019-03-10 23:16:47 22.2 19 23.2
003BEC6A 2019-03-10 22:45:27 22.1 17 23.2
003BEC6A 2019-03-10 22:14:08 22.2 17 23.2
003BEC6A 2019-03-10 21:42:48 22.2 17 23.2
003BEC6A 2019-03-10 21:11:28 22.2 18 23.2
003BEC6A 2019-03-10 20:40:06 22.2 18 23.2
003BEC6A 2019-03-10 20:08:48 22.2 17 23.1
003BEC6A 2019-03-10 19:37:28 22.2 17 23
003BEC6A 2019-03-10 19:06:08 22.2 17 22.9
003BEC6A 2019-03-10 18:34:47 22.2 17 23
003BEC6A 2019-03-10 18:03:25 22.2 17 23
003BEC6A 2019-03-10 17:32:04 22.2 18 23
003BEC6A 2019-03-10 17:00:44 22.2 18 22.9
003BEC6A 2019-03-10 16:29:24 22.2 18 23
003BEC6A 2019-03-10 15:58:04 22.2 18 22.9
003BEC6A 2019-03-10 15:26:46 22.2 19 22.9
003BEC6A 2019-03-10 14:55:26 22.2 20 22.9
003BEC6A 2019-03-10 14:24:06 22.3 21 23
003BEC6A 2019-03-10 13:52:46 22.3 22 23
003BEC6A 2019-03-10 13:21:26 22.3 22 23
003BEC6A 2019-03-10 12:50:05 22.3 23 23.1
003BEC6A 2019-03-10 12:18:44 22.3 23 23
003BEC6A 2019-03-10 11:47:24 22.3 23 22.9
003BEC6A 2019-03-10 11:16:04 22.3 24 22.9
003BEC6A 2019-03-10 10:44:45 22.3 24 22.9
003BEC6A 2019-03-10 10:13:24 22.3 24 22.8
003BEC6A 2019-03-10 09:42:03 22.3 25 22.8
003BEC6A 2019-03-10 09:10:40 22.3 25 22.8
003BEC6A 2019-03-10 08:39:20 22.4 26 22.9
003BEC6A 2019-03-10 08:08:00 22.3 27 22.9
003BEC6A 2019-03-10 07:36:41 22.4 27 22.8
003BEC6A 2019-03-10 07:05:20 22.3 27 22.9
003BEC6A 2019-03-10 06:34:01 22.3 27 22.9
003BEC6A 2019-03-10 06:02:40 22.3 27 22.8
003BEC6A 2019-03-10 05:31:20 22.3 26 22.9
003BEC6A 2019-03-10 05:00:00 22.3 25 23
003BEC6A 2019-03-10 04:28:39 22.3 24 23
003BEC6A 2019-03-10 03:57:20 22.3 24 22.9
003BEC6A 2019-03-10 03:26:01 22.3 24 22.9
003BEC6A 2019-03-10 02:54:42 22.3 24 22.9
003BEC6A 2019-03-10 02:23:23 22.3 24 22.8
003BEC6A 2019-03-10 01:52:04 22.2 24 22.8
003BEC6A 2019-03-10 01:20:42 22.3 24 22.9
003BEC6A 2019-03-10 00:49:21 22.2 24 22.9
003BEC6A 2019-03-10 00:18:02 22.3 25 22.9
003BEC6A 2019-03-09 23:46:42 22.3 25 22.8
003BEC6A 2019-03-09 23:14:51 22.3 24 23
003BEC6A 2019-03-09 22:43:33 22.3 24 22.9
003BEC6A 2019-03-09 22:12:13 22.3 24 22.9
003BEC6A 2019-03-09 21:40:53 22.3 24 22.9
003BEC6A 2019-03-09 21:09:32 22.2 24 23
003BEC6A 2019-03-09 20:38:14 22.2 24 23
003BEC6A 2019-03-09 20:06:55 22.2 24 23.1
003BEC6A 2019-03-09 19:35:37 22.2 24 23.1
003BEC6A 2019-03-09 19:04:18 22.3 23 23.1
003BEC6A 2019-03-09 18:32:59 22.2 23 23.1
003BEC6A 2019-03-09 18:01:40 22.2 22 23.1
003BEC6A 2019-03-09 17:30:19 22.3 22 23.2
003BEC6A 2019-03-09 16:58:59 22.3 22 23.1
003BEC6A 2019-03-09 16:27:36 22.2 22 23
003BEC6A 2019-03-09 15:56:14 22.3 22 23.1
003BEC6A 2019-03-09 15:24:53 22.3 23 23
003BEC6A 2019-03-09 14:53:33 22.3 23 23
003BEC6A 2019-03-09 14:22:13 22.3 24 23
003BEC6A 2019-03-09 13:50:53 22.3 24 22.9
003BEC6A 2019-03-09 13:19:32 22.3 24 23
003BEC6A 2019-03-09 12:48:11 22.3 23 22.8
003BEC6A 2019-03-09 12:16:51 22.3 23 22.7
003BEC6A 2019-03-09 11:45:32 22.4 23 22.8
003BEC6A 2019-03-09 11:14:11 22.3 23 22.9
003BEC6A 2019-03-09 10:42:51 22.3 23 22.8
003BEC6A 2019-03-09 10:11:31 22.3 24 22.8
003BEC6A 2019-03-09 09:40:11 22.4 24 22.8
003BEC6A 2019-03-09 09:08:51 22.3 24 22.7
003BEC6A 2019-03-09 08:37:30 22.3 24 22.9
003BEC6A 2019-03-09 08:06:10 22.3 24 22.9
003BEC6A 2019-03-09 07:34:49 22.3 25 22.8
003BEC6A 2019-03-09 07:03:30 22.3 25 22.7
003BEC6A 2019-03-09 06:32:11 22.3 25 22.7
003BEC6A 2019-03-09 06:00:53 22.3 26 22.7
003BEC6A 2019-03-09 05:29:35 22.3 25 22.8
003BEC6A 2019-03-09 04:58:17 22.3 25 22.8
003BEC6A 2019-03-09 04:26:58 22.4 24 22.9
003BEC6A 2019-03-09 03:55:39 22.4 24 23.1
003BEC6A 2019-03-09 03:24:19 22.4 24 23.1
003BEC6A 2019-03-09 02:52:59 22.4 25 23
003BEC6A 2019-03-09 02:21:40 22.4 24 23
003BEC6A 2019-03-09 01:50:21 22.4 25 23
003BEC6A 2019-03-09 01:18:59 22.4 26 23.1
003BEC6A 2019-03-09 00:47:39 22.5 26 23.1
003BEC6A 2019-03-09 00:16:18 22.4 27 23.2
003BEC6A 2019-03-08 23:44:55 22.4 26 23.3
003BEC6A 2019-03-08 23:13:34 22.4 26 23.3
003BEC6A 2019-03-08 22:42:11 22.4 26 23.2
003BEC6A 2019-03-08 22:10:49 22.4 26 23.2
003BEC6A 2019-03-08 21:39:29 22.4 25 23.1
003BEC6A 2019-03-08 21:07:33 22.4 25 23.2
003BEC6A 2019-03-08 20:36:12 22.4 25 23.1
003BEC6A 2019-03-08 20:04:49 22.4 26 23.2
003BEC6A 2019-03-08 19:33:27 22.5 25 23.2
003BEC6A 2019-03-08 19:02:05 22.5 25 23.2
003BEC6A 2019-03-08 18:30:42 22.5 25 23.2
003BEC6A 2019-03-08 17:59:19 22.5 26 23.1
003BEC6A 2019-03-08 17:27:57 22.5 26 23
003BEC6A 2019-03-08 16:56:33 22.5 26 22.9
003BEC6A 2019-03-08 16:25:10 22.6 26 22.8
003BEC6A 2019-03-08 15:53:48 22.6 26 22.7
003BEC6A 2019-03-08 15:22:26 22.6 27 22.7
003BEC6A 2019-03-08 14:51:03 22.6 28 22.6
003BEC6A 2019-03-08 14:19:42 22.6 28 22.6
003BEC6A 2019-03-08 13:48:19 22.6 28 22.6
003BEC6A 2019-03-08 13:17:00 22.7 27 22.5
003BEC6A 2019-03-08 12:45:39 22.7 27 22.6
003BEC6A 2019-03-08 12:14:18 22.7 26 22.6
003BEC6A 2019-03-08 11:42:59 22.7 26 22.4
003BEC6A 2019-03-08 11:11:37 22.7 26 22.4
003BEC6A 2019-03-08 10:40:18 22.7 26 22.3
003BEC6A 2019-03-08 10:08:59 22.7 26 22.3
003BEC6A 2019-03-08 09:37:40 22.7 26 22.2
003BEC6A 2019-03-08 09:06:19 22.7 26 22.3
003BEC6A 2019-03-08 08:34:59 22.7 26 22.2
003BEC6A 2019-03-08 08:03:39 22.7 26 22.2
003BEC6A 2019-03-08 07:32:17 22.7 26 22.2
003BEC6A 2019-03-08 07:00:56 22.7 26 22.2
003BEC6A 2019-03-08 06:29:35 22.7 26 22.2
003BEC6A 2019-03-08 05:58:15 22.7 26 22.1
003BEC6A 2019-03-08 05:26:56 22.7 26 22.1
003BEC6A 2019-03-08 04:55:37 22.7 26 22.1
003BEC6A 2019-03-08 04:24:19 22.7 26 22.1
003BEC6A 2019-03-08 03:53:00 22.7 25 22.1
003BEC6A 2019-03-08 03:21:42 22.7 25 22.1
003BEC6A 2019-03-08 02:50:23 22.7 25 22
003BEC6A 2019-03-08 02:19:07 22.7 25 22
003BEC6A 2019-03-08 01:47:49 22.7 24 22.2
003BEC6A 2019-03-08 01:16:32 22.7 24 22.3
003BEC6A 2019-03-08 00:45:15 22.7 23 22.3
003BEC6A 2019-03-08 00:13:57 22.7 23 22.5
003BEC6A 2019-03-07 23:42:41 22.7 23 22.5
003BEC6A 2019-03-07 23:11:19 22.7 23 22.6
003BEC6A 2019-03-07 22:40:00 22.7 24 22.6
003BEC6A 2019-03-07 22:08:42 22.6 23 23.4
003BEC6A 2019-03-07 21:37:23 22.6 23 23.4
003BEC6A 2019-03-07 21:06:05 22.6 23 23.5
003BEC6A 2019-03-07 20:34:48 22.6 23 23.5
003BEC6A 2019-03-07 20:03:30 22.6 23 23.7
003BEC6A 2019-03-07 19:32:11 22.6 24 23.7
003BEC6A 2019-03-07 19:00:20 22.6 23 23.9
003BEC6A 2019-03-07 18:29:03 22.6 22 23.9
003BEC6A 2019-03-07 17:57:43 22.6 22 24
003BEC6A 2019-03-07 17:26:24 22.6 22 24
003BEC6A 2019-03-07 16:55:05 22.8 22 24.1
003BEC6A 2019-03-07 16:23:46 23.1 23 24.2
003BEC6A 2019-03-07 15:52:27 23.4 22 24.1
003BEC6A 2019-03-07 15:21:09 23.4 23 24.2
003BEC6A 2019-03-07 14:49:50 23.3 21 24.3
003BEC6A 2019-03-07 14:18:31 23.3 20 24.3
003BEC6A 2019-03-07 13:47:13 23.3 20 24.4
003BEC6A 2019-03-07 13:15:53 23.3 20 24.3
003BEC6A 2019-03-07 12:44:34 23.3 19 24.3
003BEC6A 2019-03-07 12:13:15 23.3 19 24.3
003BEC6A 2019-03-07 11:41:56 23.4 19 24.3
003BEC6A 2019-03-07 11:10:37 23.4 19 24.3
003BEC6A 2019-03-07 10:39:17 23.5 19 24.3
003BEC6A 2019-03-07 10:07:56 23.7 21 24.3
003BEC6A 2019-03-07 09:36:36 23.9 22 23.9
003BEC6A 2019-03-07 09:05:16 24.3 18 23.8
003BEC6A 2019-03-07 08:33:57 24.6 19 23.9
003BEC6A 2019-03-07 08:02:37 24.6 20 23.9
003BEC6A 2019-03-07 07:31:19 24.6 20 23.8
003BEC6A 2019-03-07 07:00:02 24.6 20 23.8
003BEC6A 2019-03-07 06:28:43 24.6 20 23.8
003BEC6A 2019-03-07 05:57:24 24.7 21 23.5
003BEC6A 2019-03-07 05:26:04 24.7 20 23.4
003BEC6A 2019-03-07 04:54:45 24.7 20 23.3
003BEC6A 2019-03-07 04:23:27 24.7 19 23.3
003BEC6A 2019-03-07 03:52:07 24.7 19 23.4
003BEC6A 2019-03-07 03:20:47 24.7 18 23.3
003BEC6A 2019-03-07 02:49:26 24.7 18 23.3
003BEC6A 2019-03-07 02:18:11 24.7 18 23.3
003BEC6A 2019-03-07 01:46:48 24.7 16 23.2
003BEC6A 2019-03-07 01:15:29 24.7 16 23.2
003BEC6A 2019-03-07 00:44:09 24.7 15 23.1
003BEC6A 2019-03-07 00:12:50 24.7 14 23.2
003BEC6A 2019-03-06 23:41:32 24.7 14 23.1
003BEC6A 2019-03-06 23:10:15 24.7 14 23.2
003BEC6A 2019-03-06 22:38:56 24.7 15 23.1
003BEC6A 2019-03-06 22:07:37 24.6 13 23.1
003BEC6A 2019-03-06 21:36:17 24.6 12 23.2
003BEC6A 2019-03-06 21:04:58 24.7 12 23.1
003BEC6A 2019-03-06 20:33:39 24.7 12 23.1
003BEC6A 2019-03-06 20:02:20 24.6 13 23.3
003BEC6A 2019-03-06 19:31:00 24.2 13 23.3
003BEC6A 2019-03-06 18:59:41 23.7 13 23.4
003BEC6A 2019-03-06 18:28:22 23.7 11 23.4
003BEC6A 2019-03-06 17:57:03 23.8 11 23.4
003BEC6A 2019-03-06 17:25:44 23.8 12 23.4
003BEC6A 2019-03-06 16:53:51 23.9 12 23.7
003BEC6A 2019-03-06 16:22:30 23.9 12 23.7
003BEC6A 2019-03-06 15:51:10 23.9 12 23.8
003BEC6A 2019-03-06 15:19:50 23.9 12 23.7
003BEC6A 2019-03-06 14:48:30 24 12 23.7
003BEC6A 2019-03-06 14:17:11 24.3 12 23.9
003BEC6A 2019-03-06 13:45:51 24.7 12 23.8
003BEC6A 2019-03-06 13:14:32 24.8 8 23.7
003BEC6A 2019-03-06 12:43:11 24.8 7 23.8
003BEC6A 2019-03-06 12:11:53 24.9 8 23.9
003BEC6A 2019-03-06 11:40:33 24.8 8 23.9
003BEC6A 2019-03-06 11:09:13 24.9 8 23.9
003BEC6A 2019-03-06 10:37:53 24.9 8 24
003BEC6A 2019-03-06 10:06:34 24.9 9 24.1
003BEC6A 2019-03-06 09:35:15 24.9 10 24.2
003BEC6A 2019-03-06 09:03:56 24.9 10 24.1
003BEC6A 2019-03-06 08:32:36 24.8 10 24.2
003BEC6A 2019-03-06 08:01:18 24.9 10 24.3
003BEC6A 2019-03-06 07:29:59 24.8 10 24.1
003BEC6A 2019-03-06 06:58:39 24.8 11 24
003BEC6A 2019-03-06 06:27:20 24.9 12 24
003BEC6A 2019-03-06 05:56:00 24.8 11 24
003BEC6A 2019-03-06 05:24:40 24.8 10 24
003BEC6A 2019-03-06 04:53:20 24.7 9 24
003BEC6A 2019-03-06 04:22:00 24.7 8 24
003BEC6A 2019-03-06 03:50:42 24.5 7 23.8
003BEC6A 2019-03-06 03:19:23 24.5 6 23.8
003BEC6A 2019-03-06 02:48:05 24.5 6 23.8
003BEC6A 2019-03-06 02:16:51 24.5 7 23.8
003BEC6A 2019-03-06 01:45:30 24.5 6 23.8
003BEC6A 2019-03-06 01:14:12 24.5 6 23.8
003BEC6A 2019-03-06 00:42:53 24.5 6 23.8
003BEC6A 2019-03-06 00:11:35 24.5 7 23.8
003BEC6A 2019-03-05 23:40:17 24.6 8 23.8
003BEC6A 2019-03-05 23:08:59 24.5 8 23.6
003BEC6A 2019-03-05 22:37:40 24.4 9 23.6
003BEC6A 2019-03-05 22:06:21 24.4 9 23.5
003BEC6A 2019-03-05 21:35:03 24.3 8 23.4
003BEC6A 2019-03-05 21:03:45 24.2 7 23.3
003BEC6A 2019-03-05 20:32:27 24.2 7 23.1
003BEC6A 2019-03-05 20:01:09 24.2 7 23.1
003BEC6A 2019-03-05 19:29:49 24.1 7 23
003BEC6A 2019-03-05 18:58:29 24.1 7 23
003BEC6A 2019-03-05 18:27:11 24.1 8 23.1
003BEC6A 2019-03-05 17:55:52 24.1 8 23
003BEC6A 2019-03-05 17:24:36 24.1 8 23.1
003BEC6A 2019-03-05 16:53:18 24.1 9 23.1
003BEC6A 2019-03-05 16:22:01 24.1 9 23
003BEC6A 2019-03-05 15:50:43 24 10 23.7
003BEC6A 2019-03-05 15:19:25 24.1 10 23.6
003BEC6A 2019-03-05 14:47:34 24.1 11 23.7
003BEC6A 2019-03-05 14:16:18 24.1 11 23.7
003BEC6A 2019-03-05 13:44:59 24 12 23.7
003BEC6A 2019-03-05 13:13:41 24 13 23.7
003BEC6A 2019-03-05 12:42:22 24 14 23.6
003BEC6A 2019-03-05 12:11:03 24 15 23.7
003BEC6A 2019-03-05 11:39:44 24 15 23.8
003BEC6A 2019-03-05 11:08:23 24 15 23.8
003BEC6A 2019-03-05 10:37:04 24 15 23.9
003BEC6A 2019-03-05 10:05:46 24 15 23.9
003BEC6A 2019-03-05 09:34:28 24 15 24
003BEC6A 2019-03-05 09:03:10 24.1 15 24
003BEC6A 2019-03-05 08:31:52 24.1 16 24
003BEC6A 2019-03-05 08:00:34 24.1 16 24.1
003BEC6A 2019-03-05 07:29:14 24 17 24.1
003BEC6A 2019-03-05 06:57:55 24.1 17 24.1
003BEC6A 2019-03-05 06:26:36 24.1 18 24
003BEC6A 2019-03-05 05:55:18 24 18 24
003BEC6A 2019-03-05 05:23:58 24 18 24
003BEC6A 2019-03-05 04:52:39 24.1 18 24
003BEC6A 2019-03-05 04:21:21 24 18 24
003BEC6A 2019-03-05 03:50:01 24 18 24
003BEC6A 2019-03-05 03:18:42 23.9 18 23.4
003BEC6A 2019-03-05 02:47:23 23.9 16 23.6
003BEC6A 2019-03-05 02:16:02 23.8 16 23.4
003BEC6A 2019-03-05 01:44:42 23.9 16 23.3
003BEC6A 2019-03-05 01:13:22 23.8 16 23.3
003BEC6A 2019-03-05 00:42:03 23.8 16 23.5
003BEC6A 2019-03-05 00:10:42 23.8 16 23.5
003BEC6A 2019-03-04 23:39:21 23.8 16 23.6
003BEC6A 2019-03-04 23:08:02 23.8 16 23.6
003BEC6A 2019-03-04 22:36:40 23.8 17 23.6
003BEC6A 2019-03-04 22:05:20 23.8 18 23.6
003BEC6A 2019-03-04 21:33:59 23.7 16 23.5
003BEC6A 2019-03-04 21:02:38 23.7 16 23.4
003BEC6A 2019-03-04 20:31:18 23.7 17 23.6
003BEC6A 2019-03-04 19:59:58 23.7 17 23.6
003BEC6A 2019-03-04 19:28:36 23.7 17 23.5
003BEC6A 2019-03-04 18:57:15 23.5 17 23.6
003BEC6A 2019-03-04 18:25:54 23.5 16 23.5
003BEC6A 2019-03-04 17:54:33 23.5 16 23.4
003BEC6A 2019-03-04 17:23:13 23.6 16 23.5
003BEC6A 2019-03-04 16:51:54 23.5 16 23.5
003BEC6A 2019-03-04 16:20:33 23.6 17 23.6
003BEC6A 2019-03-04 15:49:14 23.6 17 23.6
003BEC6A 2019-03-04 15:17:55 23.5 17 23.5
003BEC6A 2019-03-04 14:46:34 23.5 16 23.6
003BEC6A 2019-03-04 14:15:14 23.5 16 23.7
003BEC6A 2019-03-04 13:43:54 23.5 18 23.7
003BEC6A 2019-03-04 13:12:33 23.5 20 23.7
003BEC6A 2019-03-04 12:40:41 23.5 20 23.9
003BEC6A 2019-03-04 12:09:21 23.5 20 23.9
003BEC6A 2019-03-04 11:38:01 23.6 18 23.8
003BEC6A 2019-03-04 11:06:41 23.5 17 23.7
003BEC6A 2019-03-04 10:35:22 23.5 16 23.6
003BEC6A 2019-03-04 10:04:01 23.5 16 23.7
003BEC6A 2019-03-04 09:32:40 23.5 16 23.9
003BEC6A 2019-03-04 09:01:18 23.5 16 23.9
003BEC6A 2019-03-04 08:29:59 23.5 16 24
003BEC6A 2019-03-04 07:58:37 23.5 16 23.9
003BEC6A 2019-03-04 07:27:17 23.5 16 24
003BEC6A 2019-03-04 06:55:58 23.5 16 24.1
003BEC6A 2019-03-04 06:24:36 23.5 16 24
003BEC6A 2019-03-04 05:53:15 23.5 17 24
003BEC6A 2019-03-04 05:21:54 23.4 16 24
003BEC6A 2019-03-04 04:50:33 23.3 16 24
003BEC6A 2019-03-04 04:19:14 22.9 15 24
003BEC6A 2019-03-04 03:47:54 22.5 16 24.4
003BEC6A 2019-03-04 03:16:34 22.4 15 24.5
003BEC6A 2019-03-04 02:45:15 22.4 14 24.5
003BEC6A 2019-03-04 02:13:56 22.4 14 24.4
003BEC6A 2019-03-04 01:42:38 22.3 14 24.3
003BEC6A 2019-03-04 01:11:19 22.3 14 24.3
003BEC6A 2019-03-04 00:39:59 22.3 14 24.3
003BEC6A 2019-03-04 00:08:39 22.3 14 24.3
003BEC6A 2019-03-03 23:37:19 22.3 14 24.2
003BEC6A 2019-03-03 23:05:59 22.3 14 24.1
003BEC6A 2019-03-03 22:34:38 22.3 14 24.1
003BEC6A 2019-03-03 22:03:17 22.3 13 24.2
003BEC6A 2019-03-03 21:31:56 22.4 13 24.3
003BEC6A 2019-03-03 21:00:35 22.4 13 24.1
003BEC6A 2019-03-03 20:29:15 22.4 13 24
003BEC6A 2019-03-03 19:57:54 22.3 13 24.2
003BEC6A 2019-03-03 19:26:35 22.3 13 24.1
003BEC6A 2019-03-03 18:55:16 22.4 13 24.2
003BEC6A 2019-03-03 18:23:57 22.4 13 24.1
003BEC6A 2019-03-03 17:52:37 22.5 13 24
003BEC6A 2019-03-03 17:21:19 22.5 13 24.1
003BEC6A 2019-03-03 16:49:58 22.5 13 24.3
003BEC6A 2019-03-03 16:18:36 22.7 13 24.3
003BEC6A 2019-03-03 15:47:16 22.8 14 24.2
003BEC6A 2019-03-03 15:15:54 23.2 15 24.3
003BEC6A 2019-03-03 14:44:32 23.5 16 23.7
003BEC6A 2019-03-03 14:13:12 23.5 15 23.7
003BEC6A 2019-03-03 13:41:52 23.5 17 23.9
003BEC6A 2019-03-03 13:10:32 23.5 12 24
003BEC6A 2019-03-03 12:39:10 23.6 12 24
003BEC6A 2019-03-03 12:07:50 23.6 13 24
003BEC6A 2019-03-03 11:36:29 23.5 12 24
003BEC6A 2019-03-03 11:05:08 23.6 12 24.5
003BEC6A 2019-03-03 10:33:14 23.6 12 24.6
003BEC6A 2019-03-03 10:01:52 23.6 12 24.6
003BEC6A 2019-03-03 09:30:33 23.6 12 24.5
003BEC6A 2019-03-03 08:59:13 23.6 12 24.5
003BEC6A 2019-03-03 08:27:53 23.5 13 24.6
003BEC6A 2019-03-03 07:56:33 23.5 13 24.5
003BEC6A 2019-03-03 07:25:14 23.5 14 24.5
003BEC6A 2019-03-03 06:53:54 23.5 14 24.5
003BEC6A 2019-03-03 06:22:33 23.4 13 24.4
003BEC6A 2019-03-03 05:51:12 23.4 13 24.3
003BEC6A 2019-03-03 05:19:50 23.3 13 24.3
003BEC6A 2019-03-03 04:48:29 23.2 13 24.2
003BEC6A 2019-03-03 04:17:08 23.2 11 24.1
003BEC6A 2019-03-03 03:45:47 23.2 12 24
003BEC6A 2019-03-03 03:14:26 23.2 12 24
003BEC6A 2019-03-03 02:43:04 23.1 12 23.9
003BEC6A 2019-03-03 02:11:45 23.1 13 24.4
003BEC6A 2019-03-03 01:40:23 23.1 13 24.3
003BEC6A 2019-03-03 01:09:03 23.1 13 24.1
003BEC6A 2019-03-03 00:37:41 23.1 13 23.9
003BEC6A 2019-03-03 00:06:19 23.1 13 24
003BEC6A 2019-03-02 23:34:57 23.1 14 24.1
003BEC6A 2019-03-02 23:03:35 23.1 14 24.1
003BEC6A 2019-03-02 22:32:15 23.2 16 23.5
003BEC6A 2019-03-02 22:00:55 23.2 17 23.5
003BEC6A 2019-03-02 21:29:36 23.2 17 23.5
003BEC6A 2019-03-02 20:58:16 23.2 18 23.5
003BEC6A 2019-03-02 20:26:56 23.3 18 23.5
003BEC6A 2019-03-02 19:55:36 23.2 19 23.4
003BEC6A 2019-03-02 19:24:15 23.3 18 23.3
003BEC6A 2019-03-02 18:52:52 23.3 18 23.2
003BEC6A 2019-03-02 18:21:32 23.4 18 23
003BEC6A 2019-03-02 17:50:11 23.4 20 23
003BEC6A 2019-03-02 17:18:48 23.3 17 23.2
003BEC6A 2019-03-02 16:47:27 23.3 18 23.2
003BEC6A 2019-03-02 16:16:05 23.3 18 23.3
003BEC6A 2019-03-02 15:44:43 23.3 19 23.4
003BEC6A 2019-03-02 15:13:22 23.3 19 23.5
003BEC6A 2019-03-02 14:42:02 23.3 19 23.6
003BEC6A 2019-03-02 14:10:40 23.3 20 23.7
003BEC6A 2019-03-02 13:39:19 23.4 20 23.9
003BEC6A 2019-03-02 13:07:58 23.4 23 23.2
003BEC6A 2019-03-02 12:36:37 23.4 25 23.2
003BEC6A 2019-03-02 12:05:15 23.4 21 23.4
003BEC6A 2019-03-02 11:33:54 23.4 20 23.5
003BEC6A 2019-03-02 11:02:35 23.4 19 23.5
003BEC6A 2019-03-02 10:31:16 23.5 18 23.4
003BEC6A 2019-03-02 09:59:57 23.4 18 23.3
003BEC6A 2019-03-02 09:28:37 23.5 18 23.4
003BEC6A 2019-03-02 08:57:17 23.5 18 23.4
003BEC6A 2019-03-02 08:25:23 23.5 18 23.5
003BEC6A 2019-03-02 07:54:01 23.5 18 23.5
003BEC6A 2019-03-02 07:22:40 23.5 18 23.7
003BEC6A 2019-03-02 06:51:19 23.5 18 23.7
003BEC6A 2019-03-02 06:19:58 23.5 18 23.8
003BEC6A 2019-03-02 05:48:39 23.5 18 24.4
003BEC6A 2019-03-02 05:17:19 23.5 17 24.4
003BEC6A 2019-03-02 04:45:58 23.4 17 24.3
003BEC6A 2019-03-02 04:14:38 23.3 16 24.3
003BEC6A 2019-03-02 03:43:16 23 15 24.8
003BEC6A 2019-03-02 03:11:56 22.5 15 24.8
003BEC6A 2019-03-02 02:40:35 22.4 13 24.8
003BEC6A 2019-03-02 02:09:16 22.4 12 24.7
003BEC6A 2019-03-02 01:37:56 22.4 12 24.7
003BEC6A 2019-03-02 01:06:35 22.4 11 24.6
003BEC6A 2019-03-02 00:35:18 22.3 10 24.7
003BEC6A 2019-03-02 00:03:57 22.3 9 24.8
003BEC6A 2019-03-01 23:32:39 22.3 9 24.7
003BEC6A 2019-03-01 23:01:20 22.3 8 24.6
003BEC6A 2019-03-01 22:30:00 22.3 8 24.6
003BEC6A 2019-03-01 21:58:40 22.3 8 24.6
003BEC6A 2019-03-01 21:27:20 22.3 8 24.7
003BEC6A 2019-03-01 20:56:00 22.3 8 24.5
003BEC6A 2019-03-01 20:24:38 22.2 8 25
003BEC6A 2019-03-01 19:53:17 22.2 8 25
003BEC6A 2019-03-01 19:21:57 22.2 8 24.9
003BEC6A 2019-03-01 18:50:36 22.2 9 24.9
003BEC6A 2019-03-01 18:19:17 22.2 10 24.8
003BEC6A 2019-03-01 17:47:55 22.3 9 24.8
003BEC6A 2019-03-01 17:16:33 22.4 9 24.8
003BEC6A 2019-03-01 16:45:11 22.5 10 24.2
003BEC6A 2019-03-01 16:13:50 22.3 10 24.3
003BEC6A 2019-03-01 15:42:28 22.2 10 24.2
003BEC6A 2019-03-01 15:11:08 22.2 10 24.2
003BEC6A 2019-03-01 14:39:46 22.2 10 23.8
003BEC6A 2019-03-01 14:08:24 22.2 10 23.8
003BEC6A 2019-03-01 13:37:03 22.2 11 23.7
003BEC6A 2019-03-01 13:05:42 22.2 11 23.8
003BEC6A 2019-03-01 12:34:19 22.3 11 23.7
003BEC6A 2019-03-01 12:03:00 22.3 11 23.7
003BEC6A 2019-03-01 11:31:40 22.3 12 23.7
003BEC6A 2019-03-01 11:00:19 22.4 12 23.6
003BEC6A 2019-03-01 10:28:59 22.6 13 23.6
003BEC6A 2019-03-01 09:57:38 23 15 23.6
003BEC6A 2019-03-01 09:26:17 23.4 12 23.6
003BEC6A 2019-03-01 08:54:54 23.4 13 23.4
003BEC6A 2019-03-01 08:23:33 23.4 13 23.4
003BEC6A 2019-03-01 07:52:11 23.4 13 23.4
003BEC6A 2019-03-01 07:20:50 23.4 13 22.7
003BEC6A 2019-03-01 06:49:28 23.3 13 22.7
003BEC6A 2019-03-01 06:17:35 23.3 13 22.9
003BEC6A 2019-03-01 05:46:13 23.3 13 23.5
003BEC6A 2019-03-01 05:14:52 23.3 14 23.5
003BEC6A 2019-03-01 04:43:30 23.3 14 23.5
003BEC6A 2019-03-01 04:12:09 23.3 15 23.6
003BEC6A 2019-03-01 03:40:46 23.3 15 23.5
003BEC6A 2019-03-01 03:09:25 23.2 15 23.6
003BEC6A 2019-03-01 02:38:04 23.1 14 23.5
003BEC6A 2019-03-01 02:06:43 23.1 13 23.4
003BEC6A 2019-03-01 01:35:24 23 12 23.3
003BEC6A 2019-03-01 01:04:04 22.9 10 23.9
003BEC6A 2019-03-01 00:32:44 22.9 10 24
003BEC6A 2019-03-01 00:01:23 22.8 10 24
003BEC6A 2019-02-28 23:30:02 22.8 11 24.1
003BEC6A 2019-02-28 22:58:40 22.8 12 24.1
003BEC6A 2019-02-28 22:27:17 22.8 12 24.1
003BEC6A 2019-02-28 21:55:55 22.8 13 24.6
003BEC6A 2019-02-28 21:24:34 22.7 14 24.6
003BEC6A 2019-02-28 20:53:15 22.7 15 24.5
003BEC6A 2019-02-28 20:21:54 22.5 15 24.6
003BEC6A 2019-02-28 19:50:33 22.2 18 24.7
003BEC6A 2019-02-28 19:19:12 21.7 20 24.7
003BEC6A 2019-02-28 18:47:51 21.5 20 24.8
003BEC6A 2019-02-28 18:16:31 21.7 21 24.9
003BEC6A 2019-02-28 17:45:11 21.7 23 25
003BEC6A 2019-02-28 17:13:48 21.7 24 24.9
003BEC6A 2019-02-28 16:42:27 21.7 25 24.4
003BEC6A 2019-02-28 16:11:07 21.7 25 24.4
003BEC6A 2019-02-28 15:39:47 21.7 25 24.4
003BEC6A 2019-02-28 15:08:26 21.7 24 24.4
003BEC6A 2019-02-28 14:37:07 21.7 24 24.4
003BEC6A 2019-02-28 14:05:49 21.7 24 24.4
003BEC6A 2019-02-28 13:34:30 21.8 24 24.4
003BEC6A 2019-02-28 13:03:09 21.8 24 24.5
003BEC6A 2019-02-28 12:31:50 21.8 24 24.5
003BEC6A 2019-02-28 12:00:30 21.9 23 24
003BEC6A 2019-02-28 11:29:11 22.1 23 24
003BEC6A 2019-02-28 10:57:50 22.4 23 24
003BEC6A 2019-02-28 10:26:30 22.8 24 23.9
003BEC6A 2019-02-28 09:55:10 22.9 23 23.8
003BEC6A 2019-02-28 09:23:50 22.9 24 23.8
003BEC6A 2019-02-28 08:52:30 22.9 24 23.2
003BEC6A 2019-02-28 08:21:12 22.9 23 23.2
003BEC6A 2019-02-28 07:49:54 22.9 22 23.3
003BEC6A 2019-02-28 07:18:35 22.9 22 23.3
003BEC6A 2019-02-28 06:47:16 23 22 23.3
003BEC6A 2019-02-28 06:15:58 23 22 23.2
003BEC6A 2019-02-28 05:44:39 23 22 23.1
003BEC6A 2019-02-28 05:13:19 23 22 23
003BEC6A 2019-02-28 04:41:58 23 22 23
003BEC6A 2019-02-28 04:10:05 23 23 23.1
003BEC6A 2019-02-28 03:38:46 23 23 23.3
003BEC6A 2019-02-28 03:07:27 23 22 23.4
003BEC6A 2019-02-28 02:36:08 22.9 22 23.3
003BEC6A 2019-02-28 02:04:47 22.8 22 23.4
003BEC6A 2019-02-28 01:33:27 22.7 21 23.4
003BEC6A 2019-02-28 01:02:09 22.2 21 23.4
003BEC6A 2019-02-28 00:30:50 21.8 21 23.3
003BEC6A 2019-02-27 23:59:31 21.7 18 23.9
003BEC6A 2019-02-27 23:28:12 21.7 18 23.8
003BEC6A 2019-02-27 22:56:53 21.7 18 23.8
003BEC6A 2019-02-27 22:25:34 21.7 18 23.9
003BEC6A 2019-02-27 21:54:16 21.7 18 23.9
003BEC6A 2019-02-27 21:22:57 21.7 18 24
003BEC6A 2019-02-27 20:51:37 21.7 19 24.1
003BEC6A 2019-02-27 20:20:17 21.7 19 24
003BEC6A 2019-02-27 19:48:59 21.6 19 24
003BEC6A 2019-02-27 19:17:39 21.7 20 24
003BEC6A 2019-02-27 18:46:20 21.7 20 24.5
003BEC6A 2019-02-27 18:15:00 21.7 21 24.5
003BEC6A 2019-02-27 17:43:39 21.7 22 24.5
003BEC6A 2019-02-27 17:12:17 21.7 22 24.5
003BEC6A 2019-02-27 16:40:54 21.7 23 24.5
003BEC6A 2019-02-27 16:09:32 21.8 23 24.4
003BEC6A 2019-02-27 15:38:12 21.8 23 24.4
003BEC6A 2019-02-27 15:06:49 21.8 23 24.3
003BEC6A 2019-02-27 14:35:26 21.8 24 24.4
003BEC6A 2019-02-27 14:04:06 21.8 24 24.3
003BEC6A 2019-02-27 13:32:45 21.8 24 24.3
003BEC6A 2019-02-27 13:01:25 21.9 25 24.3
003BEC6A 2019-02-27 12:30:05 21.9 25 24.3
003BEC6A 2019-02-27 11:58:45 22 25 24.4
003BEC6A 2019-02-27 11:27:23 22.3 26 24.5
003BEC6A 2019-02-27 10:56:03 22.7 27 23.9
003BEC6A 2019-02-27 10:24:42 23.1 29 24
003BEC6A 2019-02-27 09:53:21 23 24 24
003BEC6A 2019-02-27 09:22:01 23 25 23.9
003BEC6A 2019-02-27 08:50:39 23 25 24
003BEC6A 2019-02-27 08:19:19 23 25 23.9
003BEC6A 2019-02-27 07:47:56 23.1 25 23.8
003BEC6A 2019-02-27 07:16:34 23 25 24
003BEC6A 2019-02-27 06:45:14 23.1 25 24.1
003BEC6A 2019-02-27 06:13:52 23.1 25 24.1
003BEC6A 2019-02-27 05:42:31 23.1 25 23.5
003BEC6A 2019-02-27 05:11:09 23 26 23.7
003BEC6A 2019-02-27 04:39:47 23 25 23.7
003BEC6A 2019-02-27 04:08:24 23.1 25 23.6
003BEC6A 2019-02-27 03:37:03 23.1 25 23.6
003BEC6A 2019-02-27 03:05:40 23.1 24 23.6
003BEC6A 2019-02-27 02:34:17 23.1 24 23.7
003BEC6A 2019-02-27 02:02:22 23.1 24 23.6
003BEC6A 2019-02-27 01:30:59 23 25 23.7
003BEC6A 2019-02-27 00:59:37 22.9 24 23.8
003BEC6A 2019-02-27 00:28:15 22.9 21 23.9
003BEC6A 2019-02-26 23:56:54 22.9 21 24
003BEC6A 2019-02-26 23:25:31 22.8 21 23.9
003BEC6A 2019-02-26 22:54:09 22.8 22 23.8
003BEC6A 2019-02-26 22:22:47 22.8 22 23.9
003BEC6A 2019-02-26 21:51:27 22.5 23 23.8
003BEC6A 2019-02-26 21:20:06 22 25 23.9
003BEC6A 2019-02-26 20:48:44 21.7 23 23.8
003BEC6A 2019-02-26 20:17:22 21.7 23 23.8
003BEC6A 2019-02-26 19:45:59 21.7 23 23.8
003BEC6A 2019-02-26 19:14:38 21.6 23 24.4
003BEC6A 2019-02-26 18:43:17 21.7 23 24.3
003BEC6A 2019-02-26 18:11:55 21.7 23 24.4
003BEC6A 2019-02-26 17:40:34 21.8 23 24.5
003BEC6A 2019-02-26 17:09:15 21.9 23 24.5
003BEC6A 2019-02-26 16:37:55 21.9 23 24.4
003BEC6A 2019-02-26 16:06:35 21.7 23 24.4
003BEC6A 2019-02-26 15:35:14 21.7 23 24.4
003BEC6A 2019-02-26 15:03:54 21.7 23 24.5
003BEC6A 2019-02-26 14:32:32 21.7 23 24.5
003BEC6A 2019-02-26 14:01:11 21.7 23 24.5
003BEC6A 2019-02-26 13:29:48 21.7 23 24.4
003BEC6A 2019-02-26 12:58:28 21.7 24 24.3
003BEC6A 2019-02-26 12:27:07 21.8 24 24.3
003BEC6A 2019-02-26 11:55:46 21.8 24 24.3
003BEC6A 2019-02-26 11:24:27 21.9 25 24.2
003BEC6A 2019-02-26 10:53:08 21.9 25 24
003BEC6A 2019-02-26 10:21:49 22.1 26 24
003BEC6A 2019-02-26 09:50:27 22.5 28 24.1
003BEC6A 2019-02-26 09:19:07 22.9 25 24.6
003BEC6A 2019-02-26 08:47:48 22.9 25 24.6
003BEC6A 2019-02-26 08:16:25 22.9 25 24.5
003BEC6A 2019-02-26 07:45:05 22.9 25 24.5
003BEC6A 2019-02-26 07:13:45 22.9 26 24.5
003BEC6A 2019-02-26 06:42:25 22.9 26 24.6
003BEC6A 2019-02-26 06:11:05 22.9 26 24
003BEC6A 2019-02-26 05:39:44 23 26 24.1
003BEC6A 2019-02-26 05:08:25 22.9 26 24
003BEC6A 2019-02-26 04:37:06 23 27 23.8
003BEC6A 2019-02-26 04:05:47 23 27 23.8
003BEC6A 2019-02-26 03:34:28 22.9 28 23.8
003BEC6A 2019-02-26 03:03:07 22.9 27 23.8
003BEC6A 2019-02-26 02:31:48 23 27 23.8
003BEC6A 2019-02-26 02:00:29 22.9 25 23.7
003BEC6A 2019-02-26 01:29:10 22.9 24 23.7
003BEC6A 2019-02-26 00:57:50 22.9 23 23.7
003BEC6A 2019-02-26 00:26:29 22.9 22 23.7
003BEC6A 2019-02-25 23:54:36 22.9 21 23.7
003BEC6A 2019-02-25 23:23:16 22.7 21 23.6
003BEC6A 2019-02-25 22:51:56 22.7 19 23.7
003BEC6A 2019-02-25 22:20:34 22.7 19 23.7
003BEC6A 2019-02-25 21:49:12 22.6 20 23.7
003BEC6A 2019-02-25 21:17:49 22.6 20 23.6
003BEC6A 2019-02-25 20:46:27 22.6 20 22.9
003BEC6A 2019-02-25 20:15:05 22.5 19 22.8
003BEC6A 2019-02-25 19:43:40 22.4 20 22.9
003BEC6A 2019-02-25 19:12:17 22.1 20 22.9
003BEC6A 2019-02-25 18:40:51 21.7 22 22.8
003BEC6A 2019-02-25 18:09:28 21.6 21 22.6
003BEC6A 2019-02-25 17:38:05 21.6 21 22.6
003BEC6A 2019-02-25 17:06:45 21.6 21 22.3
003BEC6A 2019-02-25 16:35:26 21.6 21 22.4
003BEC6A 2019-02-25 16:04:03 21.7 20 22.4
003BEC6A 2019-02-25 15:32:43 21.7 20 22.4
003BEC6A 2019-02-25 15:01:23 21.7 21 22.3
003BEC6A 2019-02-25 14:30:02 21.7 21 22.3
003BEC6A 2019-02-25 13:58:41 21.7 21 22.3
003BEC6A 2019-02-25 13:27:21 21.7 21 22.3
003BEC6A 2019-02-25 12:55:59 21.8 21 22.3
003BEC6A 2019-02-25 12:24:39 21.8 21 22.4
003BEC6A 2019-02-25 11:53:20 21.8 21 22.4
003BEC6A 2019-02-25 11:22:00 21.9 22 22.4
003BEC6A 2019-02-25 10:50:41 21.9 22 22.4
003BEC6A 2019-02-25 10:19:20 22 23 22.5
003BEC6A 2019-02-25 09:47:57 22.2 24 22.5
003BEC6A 2019-02-25 09:16:36 22.5 26 22.5
003BEC6A 2019-02-25 08:45:15 22.9 23 22.5
003BEC6A 2019-02-25 08:13:52 23 23 22.5
003BEC6A 2019-02-25 07:42:31 23 24 22.8
003BEC6A 2019-02-25 07:11:10 23 23 22.8
003BEC6A 2019-02-25 06:39:49 23 24 22.6
003BEC6A 2019-02-25 06:08:28 23.1 24 22.7
003BEC6A 2019-02-25 05:37:07 23.1 24 22.6
003BEC6A 2019-02-25 05:05:47 23.1 23 22.6
003BEC6A 2019-02-25 04:34:26 23.1 23 22.9
003BEC6A 2019-02-25 04:03:06 23.1 22 22.9
003BEC6A 2019-02-25 03:31:47 23.1 22 22.8
003BEC6A 2019-02-25 03:00:27 23.1 20 22.7
003BEC6A 2019-02-25 02:29:06 23.1 22 22.8
003BEC6A 2019-02-25 01:57:45 23.1 25 23.1
003BEC6A 2019-02-25 01:26:24 23.1 25 23.1
003BEC6A 2019-02-25 00:55:02 23 23 23.1
003BEC6A 2019-02-25 00:23:41 23 19 23.2
003BEC6A 2019-02-24 23:52:19 23 19 23.1
003BEC6A 2019-02-24 23:20:57 23.1 19 23
003BEC6A 2019-02-24 22:49:35 23.1 20 23
003BEC6A 2019-02-24 22:18:14 23.1 20 22.9
003BEC6A 2019-02-24 21:46:18 23.2 21 22.9
003BEC6A 2019-02-24 21:14:55 23.2 22 22.7
003BEC6A 2019-02-24 20:43:34 23.3 23 22.7
003BEC6A 2019-02-24 20:12:13 23.2 25 22.7
003BEC6A 2019-02-24 19:40:52 23.2 24 22.9
003BEC6A 2019-02-24 19:09:32 23.2 24 22.8
003BEC6A 2019-02-24 18:38:10 23.2 25 22.9
003BEC6A 2019-02-24 18:06:49 23.1 25 23
003BEC6A 2019-02-24 17:35:28 23.2 25 22.9
003BEC6A 2019-02-24 17:04:06 23.2 25 23
003BEC6A 2019-02-24 16:32:47 23.3 26 23.1
003BEC6A 2019-02-24 16:01:26 23.3 28 23.1
003BEC6A 2019-02-24 15:30:05 23.4 28 23.3
003BEC6A 2019-02-24 14:58:45 23.3 29 23.3
003BEC6A 2019-02-24 14:27:25 23.3 28 23.5
003BEC6A 2019-02-24 13:56:07 23.2 25 24
003BEC6A 2019-02-24 13:24:45 23.2 25 23.8
003BEC6A 2019-02-24 12:53:25 23.2 24 23.8
003BEC6A 2019-02-24 12:22:07 23.2 25 23.8
003BEC6A 2019-02-24 11:50:47 23.2 26 23.8
003BEC6A 2019-02-24 11:19:26 23.3 25 23.8
003BEC6A 2019-02-24 10:48:06 23.3 25 23.8
003BEC6A 2019-02-24 10:16:48 23.3 25 23.8
003BEC6A 2019-02-24 09:45:27 23.3 25 23.9
003BEC6A 2019-02-24 09:14:07 23.3 25 24
003BEC6A 2019-02-24 08:42:47 23.3 25 24
003BEC6A 2019-02-24 08:11:28 23.3 25 24.1
003BEC6A 2019-02-24 07:40:07 23.3 25 24
003BEC6A 2019-02-24 07:08:46 23.3 26 24
003BEC6A 2019-02-24 06:37:26 23.4 26 24
003BEC6A 2019-02-24 06:06:06 23.4 25 23.9
003BEC6A 2019-02-24 05:34:44 23.4 25 23.9
003BEC6A 2019-02-24 05:03:24 23.3 24 23.8
003BEC6A 2019-02-24 04:32:03 23.3 23 23.8
003BEC6A 2019-02-24 04:00:43 23.2 21 23.9
003BEC6A 2019-02-24 03:29:22 23.2 21 23.9
003BEC6A 2019-02-24 02:58:02 23.2 21 23.8
003BEC6A 2019-02-24 02:26:43 23.2 22 23.7
003BEC6A 2019-02-24 01:55:22 23.2 22 23.7
003BEC6A 2019-02-24 01:24:04 23.2 22 23.7
003BEC6A 2019-02-24 00:52:44 23.2 22 23
003BEC6A 2019-02-24 00:21:26 23.2 22 23.1
003BEC6A 2019-02-23 23:50:06 23.2 22 23
003BEC6A 2019-02-23 23:18:48 23.2 22 23
003BEC6A 2019-02-23 22:47:29 23.2 22 23.2
003BEC6A 2019-02-23 22:16:09 23.3 22 23.3
003BEC6A 2019-02-23 21:44:48 23.3 23 23.2
003BEC6A 2019-02-23 21:13:28 23.4 23 23.3
003BEC6A 2019-02-23 20:42:07 23.4 23 23.3
003BEC6A 2019-02-23 20:10:48 23.4 24 23.2
003BEC6A 2019-02-23 19:38:55 23.3 22 23.3
003BEC6A 2019-02-23 19:07:35 23.3 22 23.4
003BEC6A 2019-02-23 18:36:14 23.4 23 23.4
003BEC6A 2019-02-23 18:04:56 23.4 23 23.4
003BEC6A 2019-02-23 17:33:37 23.6 23 23.4
003BEC6A 2019-02-23 17:02:19 23.7 24 23.4
003BEC6A 2019-02-23 16:31:00 23.8 24 23.4
003BEC6A 2019-02-23 15:59:39 23.7 25 23.5
003BEC6A 2019-02-23 15:28:19 23.6 25 23.5
003BEC6A 2019-02-23 14:56:59 23.5 24 23.5
003BEC6A 2019-02-23 14:25:39 23.4 22 23.5
003BEC6A 2019-02-23 13:54:20 23.6 23 23.5
003BEC6A 2019-02-23 13:23:00 23.7 24 23.5
003BEC6A 2019-02-23 12:51:40 23.4 25 23.4
003BEC6A 2019-02-23 12:20:21 23.4 23 23.4
003BEC6A 2019-02-23 11:49:02 23.4 21 23.4
003BEC6A 2019-02-23 11:17:43 23.5 21 23.4
003BEC6A 2019-02-23 10:46:23 23.4 21 23.4
003BEC6A 2019-02-23 10:15:03 23.5 21 23.4
003BEC6A 2019-02-23 09:43:41 23.5 21 23.5
003BEC6A 2019-02-23 09:12:21 23.5 20 23.4
003BEC6A 2019-02-23 08:41:01 23.5 21 23.4
003BEC6A 2019-02-23 08:09:40 23.6 21 23.3
003BEC6A 2019-02-23 07:38:20 23.6 21 23.4
003BEC6A 2019-02-23 07:07:01 23.6 21 23.4
003BEC6A 2019-02-23 06:35:42 23.6 21 23.3
003BEC6A 2019-02-23 06:04:20 23.6 22 23.2
003BEC6A 2019-02-23 05:33:00 23.6 21 23.2
003BEC6A 2019-02-23 05:01:41 23.7 20 23.3
003BEC6A 2019-02-23 04:30:22 23.6 19 23.3
003BEC6A 2019-02-23 03:59:02 23.6 18 23.4
003BEC6A 2019-02-23 03:27:43 23.5 17 23.5
003BEC6A 2019-02-23 02:56:24 23.5 16 23.6
003BEC6A 2019-02-23 02:25:06 23.6 15 23.7
003BEC6A 2019-02-23 01:53:47 23.6 15 23.7
003BEC6A 2019-02-23 01:22:28 23.6 14 23.7
003BEC6A 2019-02-23 00:51:09 23.7 14 23.4
003BEC6A 2019-02-23 00:19:50 23.7 13 23.4
003BEC6A 2019-02-22 23:48:32 23.8 13 23.6
003BEC6A 2019-02-22 23:17:14 23.8 13 23.6
003BEC6A 2019-02-22 22:45:57 23.8 12 23.7
003BEC6A 2019-02-22 22:14:39 23.9 12 23.8
003BEC6A 2019-02-22 21:43:21 23.9 11 23.9
003BEC6A 2019-02-22 21:12:01 23.9 10 23.8
003BEC6A 2019-02-22 20:40:42 23.9 11 23.9
003BEC6A 2019-02-22 20:09:23 23.8 10 24
003BEC6A 2019-02-22 19:38:01 23.6 9 24
003BEC6A 2019-02-22 19:06:39 23.2 12 24
003BEC6A 2019-02-22 18:35:18 22.7 11 23.9
003BEC6A 2019-02-22 18:03:58 22.7 9 23.9
003BEC6A 2019-02-22 17:32:04 22.7 8 24.6
003BEC6A 2019-02-22 17:21:31 22.7 8 24.6
003BEC6A 2019-02-22 17:10:59 22.8 8 24.6
003BEC6A 2019-02-22 17:00:27 22.8 8 24.5
003BEC6A 2019-02-22 16:49:54 22.8 9 24.5
003BEC6A 2019-02-22 16:39:22 22.8 9 24.5
003BEC6A 2019-02-22 16:28:51 22.8 9 24.4
003BEC6A 2019-02-22 16:18:18 22.9 9 24.3
003BEC6A 2019-02-22 16:07:45 22.8 10 24.3
003BEC6A 2019-02-22 15:57:12 22.9 10 24.3
003BEC6A 2019-02-22 15:46:40 22.9 11 24.5
003BEC6A 2019-02-22 15:36:07 22.9 12 24.4
003BEC6A 2019-02-22 15:25:35 22.9 13 24.4
003BEC6A 2019-02-22 15:15:02 22.9 13 24.4
003BEC6A 2019-02-22 15:04:30 22.9 13 24.3
003BEC6A 2019-02-22 14:53:58 22.9 13 24.2
003BEC6A 2019-02-22 14:43:26 22.9 13 24.1
003BEC6A 2019-02-22 14:32:53 22.9 11 24.2
003BEC6A 2019-02-22 14:22:22 22.9 10 24
003BEC6A 2019-02-22 14:11:51 22.9 10 24
003BEC6A 2019-02-22 14:01:19 22.9 10 24.1
003BEC6A 2019-02-22 13:50:46 22.9 11 24.1
003BEC6A 2019-02-22 13:40:14 22.9 11 24.1
003BEC6A 2019-02-22 13:29:42 23 11 24.1
003BEC6A 2019-02-22 13:19:10 23 11 23.5
003BEC6A 2019-02-22 13:08:38 23 11 23.4
003BEC6A 2019-02-22 12:58:07 23.1 11 23.5
003BEC6A 2019-02-22 12:47:35 23.2 11 23.4
003BEC6A 2019-02-22 12:37:02 23.2 11 23.5
003BEC6A 2019-02-22 12:26:30 23.3 12 23.4
003BEC6A 2019-02-22 12:15:58 23.4 12 23.3
003BEC6A 2019-02-22 12:05:26 23.3 12 23.2
003BEC6A 2019-02-22 11:54:53 23 12 23.4
003BEC6A 2019-02-22 11:44:21 22.7 12 23.4
003BEC6A 2019-02-22 11:33:48 22.7 12 23.4
003BEC6A 2019-02-22 11:23:16 22.7 12 23.4
003BEC6A 2019-02-22 11:12:44 22.7 11 23.4
003BEC6A 2019-02-22 11:02:12 22.7 11 23.4
003BEC6A 2019-02-22 10:51:39 22.6 11 23.4
003BEC6A 2019-02-22 10:41:09 22.7 11 23.3
003BEC6A 2019-02-22 10:30:35 22.7 11 23.3
003BEC6A 2019-02-22 10:20:03 22.7 11 23.3
003BEC6A 2019-02-22 10:09:32 22.6 11 23.2
003BEC6A 2019-02-22 09:59:00 22.6 11 23.2
003BEC6A 2019-02-22 09:48:28 22.6 11 23.1
003BEC6A 2019-02-22 09:37:55 22.6 11 23
003BEC6A 2019-02-22 09:27:23 22.6 11 23
003BEC6A 2019-02-22 09:16:51 22.6 11 23
003BEC6A 2019-02-22 09:06:18 22.6 11 23.1
003BEC6A 2019-02-22 08:55:46 22.6 11 23.1
003BEC6A 2019-02-22 08:44:41 22.6 11 23.1
003BEC6A 2019-02-22 08:13:21 22.6 11 23.2
003BEC6A 2019-02-22 07:42:02 22.6 11 23.2
003BEC6A 2019-02-22 07:10:43 22.6 11 23.4
003BEC6A 2019-02-22 06:39:23 22.6 11 23.4
003BEC6A 2019-02-22 06:08:05 22.6 11 23.4
003BEC6A 2019-02-22 05:36:46 22.7 11 23.4
003BEC6A 2019-02-22 05:05:27 22.7 11 23.4
003BEC6A 2019-02-22 04:34:07 22.7 12 23.5
003BEC6A 2019-02-22 04:02:48 22.8 11 23.4
003BEC6A 2019-02-22 03:31:28 22.8 11 23.4
003BEC6A 2019-02-22 03:00:07 22.9 12 23.5
003BEC6A 2019-02-22 02:28:45 23 12 23.6
003BEC6A 2019-02-22 01:57:22 23 12 23.6
003BEC6A 2019-02-22 01:26:00 23 12 23.7
003BEC6A 2019-02-22 00:54:39 23 12 23.6
003BEC6A 2019-02-22 00:23:18 23 13 23.6
003BEC6A 2019-02-21 23:51:57 23 13 23.7
003BEC6A 2019-02-21 23:20:36 22.9 13 23.8
003BEC6A 2019-02-21 22:49:15 22.8 12 23.8
003BEC6A 2019-02-21 22:17:56 22.8 12 23.7
003BEC6A 2019-02-21 21:46:37 22.7 12 23.8
003BEC6A 2019-02-21 21:15:16 22.7 11 23.7
003BEC6A 2019-02-21 20:43:55 22.6 12 23.6
003BEC6A 2019-02-21 20:12:34 22.5 12 23.6
003BEC6A 2019-02-21 19:41:13 22.4 12 23.7
003BEC6A 2019-02-21 19:09:52 22.3 11 23.6
003BEC6A 2019-02-21 18:38:30 22.3 11 23.6
003BEC6A 2019-02-21 18:07:10 22.3 9 23.4
003BEC6A 2019-02-21 17:35:49 22.3 9 23.5
003BEC6A 2019-02-21 17:04:28 22.3 9 23.5
003BEC6A 2019-02-21 16:33:06 22.3 9 23.3
003BEC6A 2019-02-21 16:01:45 22.3 9 23.3
003BEC6A 2019-02-21 15:30:22 22.3 9 23.3
003BEC6A 2019-02-21 14:59:00 22.3 9 23.4
003BEC6A 2019-02-21 14:27:37 22.3 10 23.4
003BEC6A 2019-02-21 13:56:15 22.3 10 23.3
003BEC6A 2019-02-21 13:24:53 22.3 10 23.2
003BEC6A 2019-02-21 12:53:31 22.3 11 23.2
003BEC6A 2019-02-21 12:22:08 22.3 11 23.2
003BEC6A 2019-02-21 11:50:48 22.4 12 23.2
003BEC6A 2019-02-21 11:19:26 22.3 12 23.2
003BEC6A 2019-02-21 10:48:05 22.3 13 23.1
003BEC6A 2019-02-21 10:16:42 22.4 15 23
003BEC6A 2019-02-21 09:45:21 22.4 18 23.1
003BEC6A 2019-02-21 09:14:00 22.3 12 23.1
003BEC6A 2019-02-21 08:42:38 22.3 12 23
003BEC6A 2019-02-21 08:11:17 22.3 12 23.2
003BEC6A 2019-02-21 07:39:57 22.3 13 23.5
003BEC6A 2019-02-21 07:08:38 22.5 13 23.5
003BEC6A 2019-02-21 07:07:23 22.3 13 23.5
003BEC6A 2019-02-21 06:36:04 22.2 13 23.6
003BEC6A 2019-02-21 06:04:44 22.3 13 23.7
003BEC6A 2019-02-21 05:33:23 22.3 14 23.7
003BEC6A 2019-02-21 05:02:02 22.3 14 23.8
003BEC6A 2019-02-21 04:30:43 22.3 15 23.8
003BEC6A 2019-02-21 03:59:22 22.3 15 23.7
003BEC6A 2019-02-21 03:28:01 22.4 14 23.8
003BEC6A 2019-02-21 02:56:40 22.4 15 23.7
003BEC6A 2019-02-21 02:25:19 22.4 15 23.6
003BEC6A 2019-02-21 01:53:59 22.5 15 23.5
003BEC6A 2019-02-21 01:22:38 22.5 16 23.5
003BEC6A 2019-02-21 00:51:17 22.5 16 23.4
003BEC6A 2019-02-21 00:19:55 22.5 15 23.4
003BEC6A 2019-02-20 23:48:34 22.4 15 23.6
003BEC6A 2019-02-20 23:17:13 22.4 16 23.7
003BEC6A 2019-02-20 22:45:53 22.4 16 23.9
003BEC6A 2019-02-20 22:14:33 22.3 17 23.9
003BEC6A 2019-02-20 21:43:10 22.2 19 23.9
003BEC6A 2019-02-20 21:11:48 22.1 23 23.8
003BEC6A 2019-02-20 20:40:26 22 16 23.9
003BEC6A 2019-02-20 20:09:04 22 16 24.2
003BEC6A 2019-02-20 19:37:42 21.9 16 24.1
003BEC6A 2019-02-20 19:06:21 21.9 15 24
003BEC6A 2019-02-20 18:35:01 21.8 15 23.9
003BEC6A 2019-02-20 18:03:39 21.8 15 23.9
003BEC6A 2019-02-20 17:32:17 21.8 15 23.7
003BEC6A 2019-02-20 17:00:57 21.8 15 23.7
003BEC6A 2019-02-20 16:29:37 21.8 16 23.6
003BEC6A 2019-02-20 15:58:16 21.9 16 23.6
003BEC6A 2019-02-20 15:26:55 21.8 17 23.6
003BEC6A 2019-02-20 14:55:34 21.9 17 23.7
003BEC6A 2019-02-20 14:24:12 21.9 17 23.7